Time,TemperatureF,DewpointF,PressureIn,WindDirection,WindDirectionDegrees,WindSpeedMPH,WindSpeedGustMPH,Humidity,HourlyPrecipIn,Conditions,Clouds,dailyrainin,SoftwareType,DateUTC
2013-06-30 00:00:00,64.6,57.2,28.94,NNW,338,2.3,2.3,77,0.00,RA,,0.00,WeatherDisplay:10.37,2013-06-30 05:00:00,
2013-06-30 00:01:00,64.6,57.2,28.94,NNW,338,3.1,3.1,77,0.00,RA,,0.00,WeatherDisplay:10.37,2013-06-30 05:01:00,
2013-06-30 00:04:00,64.6,57.2,28.94,North,0,4.7,4.7,77,0.00,RA,,0.00,WeatherDisplay:10.37,2013-06-30 05:04:00,
2013-06-30 00:05:00,64.6,57.2,28.94,North,351,3.0,0.0,77,0.00,RA,,0.00,WeatherDisplay:10.37,2013-06-30 05:05:00,
2013-06-30 00:06:00,64.6,57.2,28.94,NNE,22,4.6,4.6,77,0.00,RA,,0.00,WeatherDisplay:10.37,2013-06-30 05:06:00,
2013-06-30 00:07:00,64.6,57.2,28.94,NNE,22,3.6,3.6,77,0.00,RA,,0.00,WeatherDisplay:10.37,2013-06-30 05:07:00,
2013-06-30 00:10:00,64.6,57.2,28.94,North,357,2.0,0.0,77,0.00,CLR,,0.00,WeatherDisplay:10.37,2013-06-30 05:10:00,
2013-06-30 00:12:00,64.8,57.4,28.94,NNE,22,6.2,6.2,77,0.00,CLR,,0.00,WeatherDisplay:10.37,2013-06-30 05:12:00,
2013-06-30 00:13:00,64.8,57.4,28.94,NNE,22,5.8,5.8,77,0.00,CLR,,0.00,WeatherDisplay:10.37,2013-06-30 05:13:00,
2013-06-30 00:14:00,64.8,57.7,28.94,North,0,4.6,4.6,78,0.00,CLR,,0.00,WeatherDisplay:10.37,2013-06-30 05:14:00,
2013-06-30 00:15:00,64.8,57.7,28.94,NNW,338,2.3,2.3,78,0.00,CLR,,0.00,WeatherDisplay:10.37,2013-06-30 05:15:00,
2013-06-30 00:18:00,64.8,57.7,28.91,NW,315,4.6,4.6,78,0.00,CLR,,0.00,WeatherDisplay:10.37,2013-06-30 05:18:00,
2013-06-30 00:19:00,64.8,57.7,28.91,NNE,22,2.4,2.4,78,0.00,CLR,,0.00,WeatherDisplay:10.37,2013-06-30 05:19:00,
2013-06-30 00:20:00,64.8,57.7,28.91,NNW,338,2.4,2.4,78,0.00,CLR,,0.00,WeatherDisplay:10.37,2013-06-30 05:20:00,
2013-06-30 00:21:00,64.8,57.7,28.91,NW,315,2.9,2.9,78,0.00,CLR,,0.00,WeatherDisplay:10.37,2013-06-30 05:21:00,
2013-06-30 00:24:00,64.8,57.7,28.91,North,0,3.6,3.6,78,0.00,CLR,,0.00,WeatherDisplay:10.37,2013-06-30 05:24:00,
2013-06-30 00:25:00,64.8,57.7,28.91,NNE,22,3.5,3.5,78,0.00,CLR,,0.00,WeatherDisplay:10.37,2013-06-30 05:25:00,
2013-06-30 00:26:00,64.8,57.7,28.91,NW,315,4.0,4.0,78,0.00,CLR,,0.00,WeatherDisplay:10.37,2013-06-30 05:26:00,
2013-06-30 00:27:00,64.6,57.6,28.91,NNW,338,4.6,4.6,78,0.00,CLR,,0.00,WeatherDisplay:10.37,2013-06-30 05:27:00,
2013-06-30 00:28:00,64.6,57.6,28.91,North,0,3.5,3.5,78,0.00,CLR,,0.00,WeatherDisplay:10.37,2013-06-30 05:28:00,
2013-06-30 00:31:00,64.6,57.6,28.91,NNW,338,3.3,3.3,78,0.00,CLR,,0.00,WeatherDisplay:10.37,2013-06-30 05:31:00,
2013-06-30 00:32:00,64.6,57.6,28.91,North,0,3.5,3.5,78,0.00,CLR,,0.00,WeatherDisplay:10.37,2013-06-30 05:32:00,
2013-06-30 00:33:00,64.6,57.6,28.91,North,0,3.5,3.5,78,0.00,CLR,,0.00,WeatherDisplay:10.37,2013-06-30 05:33:00,
2013-06-30 00:34:00,64.6,57.6,28.91,North,0,4.6,4.6,78,0.00,CLR,,0.00,WeatherDisplay:10.37,2013-06-30 05:34:00,
2013-06-30 00:35:00,64.6,57.6,28.91,North,353,2.0,0.0,78,0.00,CLR,,0.00,WeatherDisplay:10.37,2013-06-30 05:35:00,
2013-06-30 00:38:00,64.6,57.6,28.91,North,0,4.6,4.6,78,0.00,CLR,,0.00,WeatherDisplay:10.37,2013-06-30 05:38:00,
2013-06-30 00:39:00,64.6,57.9,28.91,NNE,22,5.4,5.4,79,0.00,CLR,,0.00,WeatherDisplay:10.37,2013-06-30 05:39:00,
2013-06-30 00:40:00,64.6,57.9,28.91,North,0,5.8,5.8,79,0.00,CLR,,0.00,WeatherDisplay:10.37,2013-06-30 05:40:00,
2013-06-30 00:43:00,64.6,57.9,28.91,North,0,3.5,3.5,79,0.00,CLR,,0.00,WeatherDisplay:10.37,2013-06-30 05:43:00,
2013-06-30 00:44:00,64.6,57.9,28.91,North,0,4.6,4.6,79,0.00,CLR,,0.00,WeatherDisplay:10.37,2013-06-30 05:44:00,
2013-06-30 00:45:00,64.6,57.9,28.91,North,1,2.0,0.0,79,0.00,CLR,,0.00,WeatherDisplay:10.37,2013-06-30 05:45:00,
2013-06-30 00:46:00,64.6,58.3,28.91,NNW,338,5.8,5.8,80,0.00,CLR,,0.00,WeatherDisplay:10.37,2013-06-30 05:46:00,
2013-06-30 00:48:00,64.6,57.9,28.91,NNW,338,4.6,4.6,79,0.00,CLR,,0.00,WeatherDisplay:10.37,2013-06-30 05:48:00,
2013-06-30 00:50:00,64.6,58.3,28.91,WNW,292,3.8,3.8,80,0.00,CLR,,0.00,WeatherDisplay:10.37,2013-06-30 05:50:00,
2013-06-30 00:51:00,64.6,58.3,28.91,NNW,338,3.5,3.5,80,0.00,CLR,,0.00,WeatherDisplay:10.37,2013-06-30 05:51:00,
2013-06-30 00:52:00,64.6,58.3,28.91,North,0,3.5,3.5,80,0.00,CLR,,0.00,WeatherDisplay:10.37,2013-06-30 05:52:00,
2013-06-30 00:53:00,64.4,57.7,28.91,NW,315,1.4,1.4,79,0.00,CLR,,0.00,WeatherDisplay:10.37,2013-06-30 05:53:00,
2013-06-30 00:57:00,64.4,58.1,28.91,North,0,4.6,4.6,80,0.00,CLR,,0.00,WeatherDisplay:10.37,2013-06-30 05:57:00,
2013-06-30 00:58:00,64.4,58.1,28.91,NNE,22,5.8,5.8,80,0.00,CLR,,0.00,WeatherDisplay:10.37,2013-06-30 05:58:00,
2013-06-30 01:00:00,64.4,57.7,28.91,North,356,2.0,0.0,79,0.00,CLR,,0.00,WeatherDisplay:10.37,2013-06-30 06:00:00,
2013-06-30 01:01:00,64.4,57.7,28.91,North,0,4.6,4.6,79,0.00,CLR,,0.00,WeatherDisplay:10.37,2013-06-30 06:01:00,
2013-06-30 01:03:00,64.4,58.1,28.91,NNW,338,4.6,4.6,80,0.00,CLR,,0.00,WeatherDisplay:10.37,2013-06-30 06:03:00,
2013-06-30 01:04:00,64.4,58.1,28.91,NNE,22,3.6,3.6,80,0.00,CLR,,0.00,WeatherDisplay:10.37,2013-06-30 06:04:00,
2013-06-30 01:06:00,64.4,58.1,28.91,North,0,4.7,4.7,80,0.00,CLR,,0.00,WeatherDisplay:10.37,2013-06-30 06:06:00,
2013-06-30 01:07:00,64.4,58.1,28.91,NNW,338,4.6,4.6,80,0.00,CLR,,0.00,WeatherDisplay:10.37,2013-06-30 06:07:00,
2013-06-30 01:09:00,64.4,57.7,28.91,NW,315,3.5,3.5,79,0.00,CLR,,0.00,WeatherDisplay:10.37,2013-06-30 06:09:00,
2013-06-30 01:10:00,64.4,57.7,28.91,NNW,345,2.0,0.0,79,0.00,CLR,,0.00,WeatherDisplay:10.37,2013-06-30 06:10:00,
2013-06-30 01:11:00,64.4,58.1,28.91,North,0,3.1,3.1,80,0.00,CLR,,0.00,WeatherDisplay:10.37,2013-06-30 06:11:00,
2013-06-30 01:15:00,64.4,57.7,28.91,NNW,342,2.0,0.0,79,0.00,CLR,,0.00,WeatherDisplay:10.37,2013-06-30 06:15:00,
2013-06-30 01:16:00,64.2,57.9,28.91,NW,315,2.6,2.6,80,0.00,CLR,,0.00,WeatherDisplay:10.37,2013-06-30 06:16:00,
2013-06-30 01:17:00,64.2,57.9,28.91,NNE,22,2.4,2.4,80,0.00,CLR,,0.00,WeatherDisplay:10.37,2013-06-30 06:17:00,
2013-06-30 01:20:00,64.2,57.6,28.91,NW,315,2.3,2.3,79,0.00,CLR,,0.00,WeatherDisplay:10.37,2013-06-30 06:20:00,
2013-06-30 01:22:00,64.2,57.6,28.91,NNE,22,3.5,3.5,79,0.00,CLR,,0.00,WeatherDisplay:10.37,2013-06-30 06:22:00,
2013-06-30 01:23:00,64.2,57.6,28.91,NNE,22,4.6,4.6,79,0.00,CLR,,0.00,WeatherDisplay:10.37,2013-06-30 06:23:00,
2013-06-30 01:25:00,64.2,57.6,28.91,NNE,22,4.6,4.6,79,0.00,CLR,,0.00,WeatherDisplay:10.37,2013-06-30 06:25:00,
2013-06-30 01:26:00,64.2,57.6,28.91,NNW,338,2.3,2.3,79,0.00,CLR,,0.00,WeatherDisplay:10.37,2013-06-30 06:26:00,
2013-06-30 01:28:00,64.2,57.6,28.91,NNE,22,2.3,2.3,79,0.00,CLR,,0.00,WeatherDisplay:10.37,2013-06-30 06:28:00,
2013-06-30 01:29:00,64.2,57.6,28.91,NW,315,2.3,2.3,79,0.00,CLR,,0.00,WeatherDisplay:10.37,2013-06-30 06:29:00,
2013-06-30 01:30:00,64.2,57.6,28.91,North,0,4.0,4.0,79,0.00,CLR,,0.00,WeatherDisplay:10.37,2013-06-30 06:30:00,
2013-06-30 01:31:00,64.2,57.6,28.91,WNW,292,4.6,4.6,79,0.00,CLR,,0.00,WeatherDisplay:10.37,2013-06-30 06:31:00,
2013-06-30 01:34:00,64.2,57.6,28.94,WNW,292,3.5,0.0,79,0.00,CLR,,0.00,WeatherDisplay:10.37,2013-06-30 06:34:00,
2013-06-30 01:35:00,64.2,57.6,28.94,North,349,2.0,0.0,79,0.00,CLR,,0.00,WeatherDisplay:10.37,2013-06-30 06:35:00,
2013-06-30 01:37:00,64.2,57.6,28.94,NW,315,3.5,3.5,79,0.00,CLR,,0.00,WeatherDisplay:10.37,2013-06-30 06:37:00,
2013-06-30 01:38:00,64.2,57.6,28.94,NNW,338,4.6,4.6,79,0.00,CLR,,0.00,WeatherDisplay:10.37,2013-06-30 06:38:00,
2013-06-30 01:40:00,64.2,57.6,28.94,NNW,345,2.0,0.0,79,0.00,CLR,,0.00,WeatherDisplay:10.37,2013-06-30 06:40:00,
2013-06-30 01:43:00,64.2,57.2,28.94,NNW,338,3.5,0.0,78,0.00,CLR,,0.00,WeatherDisplay:10.37,2013-06-30 06:43:00,
2013-06-30 01:44:00,64.2,57.2,28.94,NNW,338,4.7,4.7,78,0.00,CLR,,0.00,WeatherDisplay:10.37,2013-06-30 06:44:00,
2013-06-30 01:45:00,64.2,57.2,28.94,NNW,342,1.0,0.0,78,0.00,CLR,,0.00,WeatherDisplay:10.37,2013-06-30 06:45:00,
2013-06-30 01:49:00,64.0,57.0,28.94,NNE,22,4.6,4.6,78,0.00,CLR,,0.00,WeatherDisplay:10.37,2013-06-30 06:49:00,
2013-06-30 01:50:00,64.2,57.2,28.94,NNW,341,2.0,0.0,78,0.00,CLR,,0.00,WeatherDisplay:10.37,2013-06-30 06:50:00,
2013-06-30 01:51:00,64.0,57.0,28.94,NNW,338,5.8,5.8,78,0.00,CLR,,0.00,WeatherDisplay:10.37,2013-06-30 06:51:00,
2013-06-30 01:55:00,64.0,57.4,28.94,NNE,22,2.6,2.6,79,0.00,CLR,,0.00,WeatherDisplay:10.37,2013-06-30 06:55:00,
2013-06-30 01:56:00,64.0,57.4,28.94,NNE,22,3.5,3.5,79,0.00,CLR,,0.00,WeatherDisplay:10.37,2013-06-30 06:56:00,
2013-06-30 01:57:00,64.0,57.0,28.94,NNE,22,3.5,3.5,78,0.00,CLR,,0.00,WeatherDisplay:10.37,2013-06-30 06:57:00,
2013-06-30 01:59:00,64.0,57.0,28.94,NE,45,3.5,3.5,78,0.00,CLR,,0.00,WeatherDisplay:10.37,2013-06-30 06:59:00,
2013-06-30 02:02:00,64.0,57.4,28.94,ENE,68,3.5,3.5,79,0.00,CLR,,0.00,WeatherDisplay:10.37,2013-06-30 07:02:00,
2013-06-30 02:03:00,64.0,57.4,28.94,NW,315,4.6,4.6,79,0.00,CLR,,0.00,WeatherDisplay:10.37,2013-06-30 07:03:00,
2013-06-30 02:04:00,64.0,57.4,28.94,NNW,338,4.0,4.0,79,0.00,CLR,,0.00,WeatherDisplay:10.37,2013-06-30 07:04:00,
2013-06-30 02:08:00,63.9,57.2,28.94,NNW,338,3.5,3.5,79,0.00,CLR,,0.00,WeatherDisplay:10.37,2013-06-30 07:08:00,
2013-06-30 02:10:00,63.9,57.2,28.94,NNW,347,2.0,0.0,79,0.00,CLR,,0.00,WeatherDisplay:10.37,2013-06-30 07:10:00,
2013-06-30 02:11:00,63.9,57.2,28.94,NNE,22,3.5,3.5,79,0.00,CLR,,0.00,WeatherDisplay:10.37,2013-06-30 07:11:00,
2013-06-30 02:13:00,63.9,57.2,28.94,NNW,338,2.3,2.3,79,0.00,CLR,,0.00,WeatherDisplay:10.37,2013-06-30 07:13:00,
2013-06-30 02:15:00,63.9,57.2,28.94,NNW,341,2.0,0.0,79,0.00,CLR,,0.00,WeatherDisplay:10.37,2013-06-30 07:15:00,
2013-06-30 02:16:00,63.9,57.2,28.94,NNE,22,4.6,4.6,79,0.00,CLR,,0.00,WeatherDisplay:10.37,2013-06-30 07:16:00,
2013-06-30 02:17:00,63.9,57.2,28.94,NNW,338,4.6,4.6,79,0.00,CLR,,0.00,WeatherDisplay:10.37,2013-06-30 07:17:00,
2013-06-30 02:20:00,63.9,57.2,28.94,NNW,338,2.6,2.6,79,0.00,CLR,,0.00,WeatherDisplay:10.37,2013-06-30 07:20:00,
2013-06-30 02:21:00,63.9,57.2,28.94,North,0,3.1,3.1,79,0.00,CLR,,0.00,WeatherDisplay:10.37,2013-06-30 07:21:00,
2013-06-30 02:22:00,63.9,57.2,28.94,North,0,3.5,3.5,79,0.00,CLR,,0.00,WeatherDisplay:10.37,2013-06-30 07:22:00,
2013-06-30 02:26:00,63.7,57.0,28.94,North,0,3.5,3.5,79,0.00,CLR,,0.00,WeatherDisplay:10.37,2013-06-30 07:26:00,
2013-06-30 02:27:00,63.7,57.0,28.94,NW,315,2.3,2.3,79,0.00,CLR,,0.00,WeatherDisplay:10.37,2013-06-30 07:27:00,
2013-06-30 02:29:00,63.7,57.0,28.94,North,0,2.3,2.3,79,0.00,CLR,,0.00,WeatherDisplay:10.37,2013-06-30 07:29:00,
2013-06-30 02:31:00,63.7,57.0,28.94,NNE,22,2.0,2.0,79,0.00,CLR,,0.00,WeatherDisplay:10.37,2013-06-30 07:31:00,
2013-06-30 02:32:00,63.5,56.9,28.94,North,0,2.9,2.9,79,0.00,CLR,,0.00,WeatherDisplay:10.37,2013-06-30 07:32:00,
2013-06-30 02:33:00,63.5,56.9,28.94,North,0,2.9,2.9,79,0.00,CLR,,0.00,WeatherDisplay:10.37,2013-06-30 07:33:00,
2013-06-30 02:34:00,63.5,57.2,28.94,NW,315,3.5,3.5,80,0.00,CLR,,0.00,WeatherDisplay:10.37,2013-06-30 07:34:00,
2013-06-30 02:35:00,63.5,57.2,28.94,WNW,292,2.4,2.4,80,0.00,CLR,,0.00,WeatherDisplay:10.37,2013-06-30 07:35:00,
2013-06-30 02:36:00,63.5,57.2,28.94,NNW,338,2.3,0.0,80,0.00,CLR,,0.00,WeatherDisplay:10.37,2013-06-30 07:36:00,
2013-06-30 02:37:00,63.5,57.2,28.94,NW,315,1.1,1.6,80,0.00,CLR,,0.00,WeatherDisplay:10.37,2013-06-30 07:37:00,
2013-06-30 02:38:00,63.5,57.2,28.94,NNW,338,4.6,4.6,80,0.00,CLR,,0.00,WeatherDisplay:10.37,2013-06-30 07:38:00,
2013-06-30 02:40:00,63.5,57.2,28.94,NW,326,0.0,0.0,80,0.00,CLR,,0.00,WeatherDisplay:10.37,2013-06-30 07:40:00,
2013-06-30 02:42:00,63.5,57.2,28.94,North,0,2.3,0.0,80,0.00,CLR,,0.00,WeatherDisplay:10.37,2013-06-30 07:42:00,
2013-06-30 02:45:00,63.5,57.2,28.94,NNW,339,0.0,0.0,80,0.00,CLR,,0.00,WeatherDisplay:10.37,2013-06-30 07:45:00,
2013-06-30 02:46:00,63.5,57.2,28.94,WNW,292,2.3,2.3,80,0.00,CLR,,0.00,WeatherDisplay:10.37,2013-06-30 07:46:00,
2013-06-30 02:47:00,63.5,57.2,28.94,WNW,292,2.3,2.3,80,0.00,CLR,,0.00,WeatherDisplay:10.37,2013-06-30 07:47:00,
2013-06-30 02:48:00,63.5,57.2,28.94,North,0,2.3,2.3,80,0.00,CLR,,0.00,WeatherDisplay:10.37,2013-06-30 07:48:00,
2013-06-30 02:49:00,63.5,57.2,28.94,WNW,292,2.3,2.3,80,0.00,CLR,,0.00,WeatherDisplay:10.37,2013-06-30 07:49:00,
2013-06-30 02:51:00,63.5,57.6,28.94,NNW,338,2.0,2.0,81,0.00,CLR,,0.00,WeatherDisplay:10.37,2013-06-30 07:51:00,
2013-06-30 02:53:00,63.5,57.6,28.94,WNW,292,2.3,2.3,81,0.00,CLR,,0.00,WeatherDisplay:10.37,2013-06-30 07:53:00,
2013-06-30 02:54:00,63.5,57.6,28.94,NW,315,3.8,0.0,81,0.00,CLR,,0.00,WeatherDisplay:10.37,2013-06-30 07:54:00,
2013-06-30 02:55:00,63.5,57.6,28.94,NNW,338,3.5,3.5,81,0.00,CLR,,0.00,WeatherDisplay:10.37,2013-06-30 07:55:00,
2013-06-30 02:57:00,63.5,57.6,28.94,NNW,338,3.3,0.0,81,0.00,CLR,,0.00,WeatherDisplay:10.37,2013-06-30 07:57:00,
2013-06-30 02:59:00,63.3,57.4,28.94,North,0,3.5,3.5,81,0.00,CLR,,0.00,WeatherDisplay:10.37,2013-06-30 07:59:00,
2013-06-30 03:00:00,63.5,57.5,28.94,NNW,343,2.0,0.0,81,0.00,CLR,,0.00,WeatherDisplay:10.37,2013-06-30 08:00:00,
2013-06-30 03:02:00,63.3,57.4,28.91,North,0,5.8,5.8,81,0.00,CLR,,0.00,WeatherDisplay:10.37,2013-06-30 08:02:00,
2013-06-30 03:04:00,63.3,57.4,28.91,North,0,4.6,4.6,81,0.00,CLR,,0.00,WeatherDisplay:10.37,2013-06-30 08:04:00,
2013-06-30 03:05:00,63.3,57.4,28.91,NNW,348,2.0,0.0,81,0.00,CLR,,0.00,WeatherDisplay:10.37,2013-06-30 08:05:00,
2013-06-30 03:07:00,63.3,57.4,28.91,NNE,22,4.6,4.6,81,0.00,CLR,,0.00,WeatherDisplay:10.37,2013-06-30 08:07:00,
2013-06-30 03:09:00,63.3,57.4,28.91,NNW,338,2.3,2.3,81,0.00,CLR,,0.00,WeatherDisplay:10.37,2013-06-30 08:09:00,
2013-06-30 03:10:00,63.3,57.4,28.91,North,358,1.0,0.0,81,0.00,CLR,,0.00,WeatherDisplay:10.37,2013-06-30 08:10:00,
2013-06-30 03:12:00,63.3,57.4,28.91,North,0,4.6,4.6,81,0.00,CLR,,0.00,WeatherDisplay:10.37,2013-06-30 08:12:00,
2013-06-30 03:14:00,63.3,57.4,28.91,North,0,3.6,3.6,81,0.00,CLR,,0.00,WeatherDisplay:10.37,2013-06-30 08:14:00,
2013-06-30 03:15:00,63.3,57.4,28.91,North,354,1.0,0.0,81,0.00,CLR,,0.00,WeatherDisplay:10.37,2013-06-30 08:15:00,
2013-06-30 03:16:00,63.3,57.4,28.91,NNW,338,4.6,4.6,81,0.00,CLR,,0.00,WeatherDisplay:10.37,2013-06-30 08:16:00,
2013-06-30 03:17:00,63.3,57.4,28.91,NNW,338,3.5,3.5,81,0.00,CLR,,0.00,WeatherDisplay:10.37,2013-06-30 08:17:00,
2013-06-30 03:20:00,63.3,57.4,28.91,NNW,348,1.0,0.0,81,0.00,CLR,,0.00,WeatherDisplay:10.37,2013-06-30 08:20:00,
2013-06-30 03:23:00,63.1,57.2,28.91,ENE,68,3.5,3.5,81,0.00,CLR,,0.00,WeatherDisplay:10.37,2013-06-30 08:23:00,
2013-06-30 03:25:00,63.1,57.2,28.91,North,0,3.5,3.5,81,0.00,CLR,,0.00,WeatherDisplay:10.37,2013-06-30 08:25:00,
2013-06-30 03:27:00,63.3,57.4,28.91,NNW,338,5.8,0.0,81,0.00,CLR,,0.00,WeatherDisplay:10.37,2013-06-30 08:27:00,
2013-06-30 03:28:00,63.3,57.4,28.91,NNW,338,5.8,5.8,81,0.00,CLR,,0.00,WeatherDisplay:10.37,2013-06-30 08:28:00,
2013-06-30 03:29:00,63.3,57.4,28.91,NNE,22,5.8,5.8,81,0.00,CLR,,0.00,WeatherDisplay:10.37,2013-06-30 08:29:00,
2013-06-30 03:30:00,63.3,57.4,28.91,NW,315,5.8,5.8,81,0.00,CLR,,0.00,WeatherDisplay:10.37,2013-06-30 08:30:00,
2013-06-30 03:31:00,63.3,57.4,28.94,NW,315,4.6,4.6,81,0.00,CLR,,0.00,WeatherDisplay:10.37,2013-06-30 08:31:00,
2013-06-30 03:33:00,63.3,57.4,28.94,WNW,292,3.8,3.8,81,0.00,CLR,,0.00,WeatherDisplay:10.37,2013-06-30 08:33:00,
2013-06-30 03:35:00,63.1,57.2,28.94,NNW,338,3.5,3.5,81,0.00,CLR,,0.00,WeatherDisplay:10.37,2013-06-30 08:35:00,
2013-06-30 03:36:00,63.1,57.2,28.94,NNW,338,4.6,4.6,81,0.00,CLR,,0.00,WeatherDisplay:10.37,2013-06-30 08:36:00,
2013-06-30 03:38:00,63.1,57.2,28.94,NNW,338,4.6,4.6,81,0.00,CLR,,0.00,WeatherDisplay:10.37,2013-06-30 08:38:00,
2013-06-30 03:40:00,63.1,57.2,28.94,NNW,333,2.0,0.0,81,0.00,CLR,,0.00,WeatherDisplay:10.37,2013-06-30 08:40:00,
2013-06-30 03:41:00,63.1,57.2,28.94,NNE,22,3.5,3.5,81,0.00,CLR,,0.00,WeatherDisplay:10.37,2013-06-30 08:41:00,
2013-06-30 03:43:00,63.1,57.2,28.94,North,0,3.5,3.5,81,0.00,CLR,,0.00,WeatherDisplay:10.37,2013-06-30 08:43:00,
2013-06-30 03:45:00,63.0,57.0,28.94,NNW,346,0.0,0.0,81,0.00,CLR,,0.00,WeatherDisplay:10.37,2013-06-30 08:45:00,
2013-06-30 03:48:00,63.0,57.0,28.94,NNW,338,2.9,2.9,81,0.00,CLR,,0.00,WeatherDisplay:10.37,2013-06-30 08:48:00,
2013-06-30 03:50:00,63.0,57.0,28.94,WNW,292,2.3,2.3,81,0.00,CLR,,0.00,WeatherDisplay:10.37,2013-06-30 08:50:00,
2013-06-30 03:51:00,63.0,57.0,28.94,NNE,22,2.3,0.0,81,0.00,CLR,,0.00,WeatherDisplay:10.37,2013-06-30 08:51:00,
2013-06-30 03:54:00,62.8,56.9,28.94,NNW,338,4.7,4.7,81,0.00,CLR,,0.00,WeatherDisplay:10.37,2013-06-30 08:54:00,
2013-06-30 03:55:00,62.8,56.9,28.94,NNW,338,4.6,4.6,81,0.00,CLR,,0.00,WeatherDisplay:10.37,2013-06-30 08:55:00,
2013-06-30 03:56:00,62.8,56.9,28.94,NNE,22,3.5,3.5,81,0.00,CLR,,0.00,WeatherDisplay:10.37,2013-06-30 08:56:00,
2013-06-30 03:58:00,62.8,56.9,28.94,NNE,22,3.5,3.5,81,0.00,CLR,,0.00,WeatherDisplay:10.37,2013-06-30 08:58:00,
2013-06-30 03:59:00,62.6,56.7,28.94,NE,45,3.5,3.5,81,0.00,CLR,,0.00,WeatherDisplay:10.37,2013-06-30 08:59:00,
2013-06-30 04:01:00,62.6,56.7,28.94,NW,315,2.3,2.3,81,0.00,CLR,,0.00,WeatherDisplay:10.37,2013-06-30 09:01:00,
2013-06-30 04:04:00,62.6,56.7,28.94,NE,45,2.3,2.3,81,0.00,CLR,,0.00,WeatherDisplay:10.37,2013-06-30 09:04:00,
2013-06-30 04:05:00,62.6,56.7,28.94,North,5,2.0,0.0,81,0.00,CLR,,0.00,WeatherDisplay:10.37,2013-06-30 09:05:00,
2013-06-30 04:06:00,62.6,56.7,28.94,North,0,2.4,2.4,81,0.00,CLR,,0.00,WeatherDisplay:10.37,2013-06-30 09:06:00,
2013-06-30 04:08:00,62.6,56.7,28.94,NNW,338,2.3,2.3,81,0.00,CLR,,0.00,WeatherDisplay:10.37,2013-06-30 09:08:00,
2013-06-30 04:10:00,62.4,56.5,28.94,NNW,338,2.4,2.4,81,0.00,CLR,,0.00,WeatherDisplay:10.37,2013-06-30 09:10:00,
2013-06-30 04:13:00,62.4,56.5,28.94,North,0,3.5,3.5,81,0.00,CLR,,0.00,WeatherDisplay:10.37,2013-06-30 09:13:00,
2013-06-30 04:14:00,62.4,56.5,28.94,North,0,2.3,2.3,81,0.00,CLR,,0.00,WeatherDisplay:10.37,2013-06-30 09:14:00,
2013-06-30 04:15:00,62.4,56.5,28.94,North,353,2.0,0.0,81,0.00,CLR,,0.00,WeatherDisplay:10.37,2013-06-30 09:15:00,
2013-06-30 04:16:00,62.2,56.3,28.97,North,0,3.8,3.8,81,0.00,CLR,,0.00,WeatherDisplay:10.37,2013-06-30 09:16:00,
2013-06-30 04:20:00,62.2,56.3,28.97,North,350,2.0,0.0,81,0.00,CLR,,0.00,WeatherDisplay:10.37,2013-06-30 09:20:00,
2013-06-30 04:21:00,62.2,56.3,28.97,North,0,4.6,4.6,81,0.00,CLR,,0.00,WeatherDisplay:10.37,2013-06-30 09:21:00,
2013-06-30 04:22:00,62.2,56.3,28.97,North,0,3.5,3.5,81,0.00,CLR,,0.00,WeatherDisplay:10.37,2013-06-30 09:22:00,
2013-06-30 04:25:00,62.2,56.3,28.97,SE,135,2.3,2.3,81,0.00,CLR,,0.00,WeatherDisplay:10.37,2013-06-30 09:25:00,
2013-06-30 04:26:00,62.2,56.0,28.97,NNE,22,2.3,2.3,80,0.00,CLR,,0.00,WeatherDisplay:10.37,2013-06-30 09:26:00,
2013-06-30 04:27:00,62.2,56.0,28.97,NNW,338,2.3,2.3,80,0.00,CLR,,0.00,WeatherDisplay:10.37,2013-06-30 09:27:00,
2013-06-30 04:28:00,62.1,55.8,28.97,NNW,338,2.3,2.3,80,0.00,CLR,,0.00,WeatherDisplay:10.37,2013-06-30 09:28:00,
2013-06-30 04:30:00,62.1,55.8,28.97,NNW,338,3.8,3.8,80,0.00,CLR,,0.00,WeatherDisplay:10.37,2013-06-30 09:30:00,
2013-06-30 04:33:00,62.1,55.8,28.97,NNW,338,2.3,2.3,80,0.00,CLR,,0.00,WeatherDisplay:10.37,2013-06-30 09:33:00,
2013-06-30 04:35:00,62.1,55.8,28.97,North,359,2.0,0.0,80,0.00,CLR,,0.00,WeatherDisplay:10.37,2013-06-30 09:35:00,
2013-06-30 04:36:00,62.1,55.8,28.97,North,0,3.5,3.5,80,0.00,CLR,,0.00,WeatherDisplay:10.37,2013-06-30 09:36:00,
2013-06-30 04:41:00,61.9,55.6,28.97,NNW,338,2.3,0.0,80,0.00,CLR,,0.00,WeatherDisplay:10.37,2013-06-30 09:41:00,
2013-06-30 04:42:00,61.9,55.6,28.97,NNE,22,1.1,0.0,80,0.00,CLR,,0.00,WeatherDisplay:10.37,2013-06-30 09:42:00,
2013-06-30 04:43:00,61.9,55.3,28.97,North,0,5.8,5.8,79,0.00,CLR,,0.00,WeatherDisplay:10.37,2013-06-30 09:43:00,
2013-06-30 04:44:00,61.9,55.3,28.97,NNW,338,5.8,5.8,79,0.00,CLR,,0.00,WeatherDisplay:10.37,2013-06-30 09:44:00,
2013-06-30 04:46:00,61.9,55.3,28.97,North,0,2.3,2.3,79,0.00,CLR,,0.00,WeatherDisplay:10.37,2013-06-30 09:46:00,
2013-06-30 04:48:00,61.7,55.1,28.97,NNW,338,0.0,0.0,79,0.00,CLR,,0.00,WeatherDisplay:10.37,2013-06-30 09:48:00,
2013-06-30 04:49:00,61.7,55.1,28.97,North,0,3.5,3.5,79,0.00,CLR,,0.00,WeatherDisplay:10.37,2013-06-30 09:49:00,
2013-06-30 04:51:00,61.7,55.1,28.97,NW,315,3.5,3.5,79,0.00,CLR,,0.00,WeatherDisplay:10.37,2013-06-30 09:51:00,
2013-06-30 04:55:00,61.7,55.1,28.97,NE,45,3.5,3.5,79,0.00,CLR,,0.00,WeatherDisplay:10.37,2013-06-30 09:55:00,
2013-06-30 04:56:00,61.5,54.9,28.97,NNW,338,3.5,3.5,79,0.00,CLR,,0.00,WeatherDisplay:10.37,2013-06-30 09:56:00,
2013-06-30 05:00:00,61.5,54.9,28.97,North,350,2.0,0.0,79,0.00,CLR,,0.00,WeatherDisplay:10.37,2013-06-30 10:00:00,
2013-06-30 05:01:00,61.5,55.3,28.97,NNW,338,3.5,3.5,80,0.00,CLR,,0.00,WeatherDisplay:10.37,2013-06-30 10:01:00,
2013-06-30 05:03:00,61.5,55.3,28.97,West,270,3.5,3.5,80,0.00,CLR,,0.00,WeatherDisplay:10.37,2013-06-30 10:03:00,
2013-06-30 05:05:00,61.4,55.2,28.97,NNW,340,2.0,0.0,80,0.00,CLR,,0.00,WeatherDisplay:10.37,2013-06-30 10:05:00,
2013-06-30 05:08:00,61.3,55.1,28.97,NNW,338,2.3,2.4,80,0.00,CLR,,0.00,WeatherDisplay:10.37,2013-06-30 10:08:00,
2013-06-30 05:09:00,61.3,55.1,28.97,North,0,4.6,4.6,80,0.00,CLR,,0.00,WeatherDisplay:10.37,2013-06-30 10:09:00,
2013-06-30 05:10:00,61.3,55.1,28.97,NNW,338,4.6,4.6,80,0.00,CLR,,0.00,WeatherDisplay:10.37,2013-06-30 10:10:00,
2013-06-30 05:11:00,61.3,55.1,28.97,NNE,22,3.5,3.5,80,0.00,CLR,,0.00,WeatherDisplay:10.37,2013-06-30 10:11:00,
2013-06-30 05:12:00,61.3,55.1,28.97,NW,315,2.3,2.9,80,0.00,CLR,,0.00,WeatherDisplay:10.37,2013-06-30 10:12:00,
2013-06-30 05:14:00,61.3,55.1,28.97,NNE,22,4.6,4.6,80,0.00,CLR,,0.00,WeatherDisplay:10.37,2013-06-30 10:14:00,
2013-06-30 05:15:00,61.3,55.1,28.97,WNW,292,4.6,4.6,80,0.00,CLR,,0.00,WeatherDisplay:10.37,2013-06-30 10:15:00,
2013-06-30 05:17:00,61.3,55.1,28.97,North,0,4.6,4.6,80,0.00,CLR,,0.00,WeatherDisplay:10.37,2013-06-30 10:17:00,
2013-06-30 05:18:00,61.3,55.1,28.97,North,0,5.9,5.9,80,0.00,CLR,,0.00,WeatherDisplay:10.37,2013-06-30 10:18:00,
2013-06-30 05:20:00,61.3,55.5,28.97,North,0,5.8,5.8,81,0.00,CLR,,0.00,WeatherDisplay:10.37,2013-06-30 10:20:00,
2013-06-30 05:22:00,61.3,55.5,28.97,NNW,338,3.6,3.6,81,0.00,CLR,,0.00,WeatherDisplay:10.37,2013-06-30 10:22:00,
2013-06-30 05:24:00,61.3,55.5,28.97,NNW,338,4.6,4.6,81,0.00,CLR,,0.00,WeatherDisplay:10.37,2013-06-30 10:24:00,
2013-06-30 05:27:00,61.3,55.5,28.97,NNW,338,4.6,4.6,81,0.00,CLR,,0.00,WeatherDisplay:10.37,2013-06-30 10:27:00,
2013-06-30 05:28:00,61.3,55.5,28.97,West,270,2.3,2.3,81,0.00,CLR,,0.00,WeatherDisplay:10.37,2013-06-30 10:28:00,
2013-06-30 05:30:00,61.3,55.5,28.97,NNW,338,2.3,2.3,81,0.00,CLR,,0.00,WeatherDisplay:10.37,2013-06-30 10:30:00,
2013-06-30 05:32:00,61.3,55.5,28.97,NNW,338,3.5,3.5,81,0.00,CLR,,0.00,WeatherDisplay:10.37,2013-06-30 10:32:00,
2013-06-30 05:33:00,61.3,55.5,28.97,North,0,2.3,2.3,81,0.00,CLR,,0.00,WeatherDisplay:10.37,2013-06-30 10:33:00,
2013-06-30 05:34:00,61.3,55.5,28.97,NNE,22,2.3,2.3,81,0.00,CLR,,0.00,WeatherDisplay:10.37,2013-06-30 10:34:00,
2013-06-30 05:35:00,61.3,55.5,28.97,NNW,343,1.0,0.0,81,0.00,CLR,,0.00,WeatherDisplay:10.37,2013-06-30 10:35:00,
2013-06-30 05:36:00,61.3,55.5,28.97,NNW,338,3.5,3.5,81,0.00,CLR,,0.00,WeatherDisplay:10.37,2013-06-30 10:36:00,
2013-06-30 05:38:00,61.3,55.5,28.97,NNW,338,2.3,2.3,81,0.00,CLR,,0.00,WeatherDisplay:10.37,2013-06-30 10:38:00,
2013-06-30 05:40:00,61.4,55.5,28.97,NNW,342,2.0,0.0,81,0.00,CLR,,0.00,WeatherDisplay:10.37,2013-06-30 10:40:00,
2013-06-30 05:41:00,61.5,55.6,28.97,North,0,3.5,3.5,81,0.00,CLR,,0.00,WeatherDisplay:10.37,2013-06-30 10:41:00,
2013-06-30 05:43:00,61.5,55.6,28.97,NNW,338,3.5,3.5,81,0.00,CLR,,0.00,WeatherDisplay:10.37,2013-06-30 10:43:00,
2013-06-30 05:45:00,61.5,55.6,28.97,NNE,22,4.6,4.6,81,0.00,CLR,,0.00,WeatherDisplay:10.37,2013-06-30 10:45:00,
2013-06-30 05:46:00,61.5,55.6,28.97,North,0,5.8,5.8,81,0.00,CLR,,0.00,WeatherDisplay:10.37,2013-06-30 10:46:00,
2013-06-30 05:50:00,61.7,55.8,28.97,NNW,347,2.0,0.0,81,0.00,CLR,,0.00,WeatherDisplay:10.37,2013-06-30 10:50:00,
2013-06-30 05:51:00,61.7,55.8,28.97,NNE,22,3.5,3.5,81,0.00,CLR,,0.00,WeatherDisplay:10.37,2013-06-30 10:51:00,
2013-06-30 05:52:00,61.7,55.8,28.97,North,0,4.0,4.0,81,0.00,CLR,,0.00,WeatherDisplay:10.37,2013-06-30 10:52:00,
2013-06-30 05:54:00,61.7,55.8,28.97,North,0,2.3,2.3,81,0.00,CLR,,0.00,WeatherDisplay:10.37,2013-06-30 10:54:00,
2013-06-30 05:56:00,61.7,55.8,28.97,North,0,2.3,2.3,81,0.00,CLR,,0.00,WeatherDisplay:10.37,2013-06-30 10:56:00,
2013-06-30 05:57:00,61.7,55.8,28.97,North,0,2.6,2.6,81,0.00,CLR,,0.00,WeatherDisplay:10.37,2013-06-30 10:57:00,
2013-06-30 05:58:00,61.7,55.8,28.97,North,0,4.6,4.6,81,0.00,CLR,,0.00,WeatherDisplay:10.37,2013-06-30 10:58:00,
2013-06-30 05:59:00,61.9,56.3,28.97,NNW,338,4.6,4.6,82,0.00,CLR,,0.00,WeatherDisplay:10.37,2013-06-30 10:59:00,
2013-06-30 06:02:00,61.9,56.3,28.97,North,0,3.3,3.3,82,0.00,CLR,,0.00,WeatherDisplay:10.37,2013-06-30 11:02:00,
2013-06-30 06:04:00,61.9,56.3,28.97,NNW,338,4.6,4.6,82,0.00,CLR,,0.00,WeatherDisplay:10.37,2013-06-30 11:04:00,
2013-06-30 06:05:00,61.9,56.3,28.97,NW,315,4.6,4.6,82,0.00,CLR,,0.00,WeatherDisplay:10.37,2013-06-30 11:05:00,
2013-06-30 06:06:00,61.9,56.3,28.97,NNW,338,2.6,2.6,82,0.00,CLR,,0.00,WeatherDisplay:10.37,2013-06-30 11:06:00,
2013-06-30 06:08:00,62.1,56.5,28.97,NNE,22,2.4,2.4,82,0.00,CLR,,0.00,WeatherDisplay:10.37,2013-06-30 11:08:00,
2013-06-30 06:11:00,62.1,56.5,28.97,NNW,338,2.3,0.0,82,0.00,CLR,,0.00,WeatherDisplay:10.37,2013-06-30 11:11:00,
2013-06-30 06:12:00,62.1,56.5,28.97,WNW,292,2.3,2.3,82,0.00,CLR,,0.00,WeatherDisplay:10.37,2013-06-30 11:12:00,
2013-06-30 06:13:00,62.2,56.7,28.97,NNW,338,4.3,4.3,82,0.00,CLR,,0.00,WeatherDisplay:10.37,2013-06-30 11:13:00,
2013-06-30 06:14:00,62.2,56.7,28.97,NNE,22,4.6,4.6,82,0.00,CLR,,0.00,WeatherDisplay:10.37,2013-06-30 11:14:00,
2013-06-30 06:16:00,62.2,56.7,28.97,NNW,338,2.3,2.3,82,0.00,CLR,,0.00,WeatherDisplay:10.37,2013-06-30 11:16:00,
2013-06-30 06:17:00,62.2,56.7,28.97,North,0,3.5,3.5,82,0.00,CLR,,0.00,WeatherDisplay:10.37,2013-06-30 11:17:00,
2013-06-30 06:18:00,62.2,56.7,28.97,NNW,338,3.5,3.5,82,0.00,CLR,,0.00,WeatherDisplay:10.37,2013-06-30 11:18:00,
2013-06-30 06:20:00,62.4,56.9,28.97,NNW,338,3.5,3.5,82,0.00,CLR,,0.00,WeatherDisplay:10.37,2013-06-30 11:20:00,
2013-06-30 06:22:00,62.4,56.9,28.97,WNW,292,4.6,4.6,82,0.00,CLR,,0.00,WeatherDisplay:10.37,2013-06-30 11:22:00,
2013-06-30 06:23:00,62.4,56.9,28.97,NNW,338,2.3,2.3,82,0.00,CLR,,0.00,WeatherDisplay:10.37,2013-06-30 11:23:00,
2013-06-30 06:25:00,62.6,57.0,28.97,NNW,338,3.5,3.5,82,0.00,CLR,,0.00,WeatherDisplay:10.37,2013-06-30 11:25:00,
2013-06-30 06:26:00,62.6,57.0,28.97,WSW,248,1.1,0.0,82,0.00,CLR,,0.00,WeatherDisplay:10.37,2013-06-30 11:26:00,
2013-06-30 06:28:00,62.6,57.0,28.97,NW,315,4.6,4.6,82,0.00,CLR,,0.00,WeatherDisplay:10.37,2013-06-30 11:28:00,
2013-06-30 06:30:00,62.8,57.2,28.97,West,270,2.3,2.3,82,0.00,CLR,,0.00,WeatherDisplay:10.37,2013-06-30 11:30:00,
2013-06-30 06:32:00,62.8,57.2,28.97,West,270,0.0,0.0,82,0.00,CLR,,0.00,WeatherDisplay:10.37,2013-06-30 11:32:00,
2013-06-30 06:33:00,62.8,57.2,28.97,North,0,6.0,6.0,82,0.00,CLR,,0.00,WeatherDisplay:10.37,2013-06-30 11:33:00,
2013-06-30 06:35:00,63.0,57.4,28.97,NNW,338,2.4,0.0,82,0.00,CLR,,0.00,WeatherDisplay:10.37,2013-06-30 11:35:00,
2013-06-30 06:38:00,63.0,57.4,28.97,WNW,292,2.4,2.4,82,0.00,CLR,,0.00,WeatherDisplay:10.37,2013-06-30 11:38:00,
2013-06-30 06:39:00,63.0,57.4,28.97,West,270,2.3,2.3,82,0.00,CLR,,0.00,WeatherDisplay:10.37,2013-06-30 11:39:00,
2013-06-30 06:41:00,63.1,57.6,28.97,NE,45,1.1,0.0,82,0.00,CLR,,0.00,WeatherDisplay:10.37,2013-06-30 11:41:00,
2013-06-30 06:42:00,63.1,57.6,28.97,NW,315,4.6,4.6,82,0.00,CLR,,0.00,WeatherDisplay:10.37,2013-06-30 11:42:00,
2013-06-30 06:44:00,63.1,57.6,28.97,North,0,2.3,2.3,82,0.00,CLR,,0.00,WeatherDisplay:10.37,2013-06-30 11:44:00,
2013-06-30 06:45:00,63.1,57.6,28.97,NW,325,1.0,0.0,82,0.00,CLR,,0.00,WeatherDisplay:10.37,2013-06-30 11:45:00,
2013-06-30 06:47:00,63.1,57.2,29.00,NNW,338,2.6,2.6,81,0.00,CLR,,0.00,WeatherDisplay:10.37,2013-06-30 11:47:00,
2013-06-30 06:48:00,63.1,57.2,29.00,WNW,292,4.6,4.6,81,0.00,CLR,,0.00,WeatherDisplay:10.37,2013-06-30 11:48:00,
2013-06-30 06:50:00,63.1,57.2,29.00,NNW,348,2.0,0.0,81,0.00,CLR,,0.00,WeatherDisplay:10.37,2013-06-30 11:50:00,
2013-06-30 06:53:00,63.3,57.4,29.00,West,270,5.8,5.8,81,0.00,CLR,,0.00,WeatherDisplay:10.37,2013-06-30 11:53:00,
2013-06-30 06:54:00,63.3,57.0,29.00,NNE,22,5.9,5.9,80,0.00,CLR,,0.00,WeatherDisplay:10.37,2013-06-30 11:54:00,
2013-06-30 06:55:00,63.3,57.0,29.00,North,353,3.0,0.0,80,0.00,CLR,,0.00,WeatherDisplay:10.37,2013-06-30 11:55:00,
2013-06-30 06:58:00,63.5,57.2,29.00,North,0,3.5,3.5,80,0.00,CLR,,0.00,WeatherDisplay:10.37,2013-06-30 11:58:00,
2013-06-30 06:59:00,63.5,57.2,29.00,NNW,338,4.6,4.6,80,0.00,CLR,,0.00,WeatherDisplay:10.37,2013-06-30 11:59:00,
2013-06-30 07:00:00,63.5,57.2,29.00,NNE,22,4.6,4.6,80,0.00,CLR,,0.00,WeatherDisplay:10.37,2013-06-30 12:00:00,
2013-06-30 07:02:00,63.5,57.2,29.00,NNE,22,5.8,5.8,80,0.00,CLR,,0.00,WeatherDisplay:10.37,2013-06-30 12:02:00,
2013-06-30 07:03:00,63.5,57.2,29.00,NNE,22,6.2,6.2,80,0.00,CLR,,0.00,WeatherDisplay:10.37,2013-06-30 12:03:00,
2013-06-30 07:05:00,63.7,57.0,29.00,NE,45,5.8,5.8,79,0.00,CLR,,0.00,WeatherDisplay:10.37,2013-06-30 12:05:00,
2013-06-30 07:06:00,63.7,57.0,29.00,NNW,338,3.5,3.5,79,0.00,CLR,,0.00,WeatherDisplay:10.37,2013-06-30 12:06:00,
2013-06-30 07:07:00,63.7,57.0,29.00,WNW,292,4.6,4.6,79,0.00,CLR,,0.00,WeatherDisplay:10.37,2013-06-30 12:07:00,
2013-06-30 07:08:00,63.9,57.2,29.00,North,0,4.6,4.6,79,0.00,CLR,,0.00,WeatherDisplay:10.37,2013-06-30 12:08:00,
2013-06-30 07:11:00,63.9,57.2,29.00,NW,315,4.6,4.6,79,0.00,CLR,,0.00,WeatherDisplay:10.37,2013-06-30 12:11:00,
2013-06-30 07:13:00,63.9,56.9,29.00,NNW,338,2.4,2.4,78,0.00,CLR,,0.00,WeatherDisplay:10.37,2013-06-30 12:13:00,
2013-06-30 07:14:00,64.0,57.0,29.00,WNW,292,3.5,3.5,78,0.00,CLR,,0.00,WeatherDisplay:10.37,2013-06-30 12:14:00,
2013-06-30 07:16:00,64.0,57.0,29.00,NNW,338,4.6,4.6,78,0.00,CLR,,0.00,WeatherDisplay:10.37,2013-06-30 12:16:00,
2013-06-30 07:20:00,64.2,57.2,29.00,North,354,2.0,0.0,78,0.00,CLR,,0.00,WeatherDisplay:10.37,2013-06-30 12:20:00,
2013-06-30 07:23:00,64.2,56.9,29.00,NNE,22,3.6,3.6,77,0.00,CLR,,0.00,WeatherDisplay:10.37,2013-06-30 12:23:00,
2013-06-30 07:24:00,64.4,56.7,29.00,North,0,5.8,5.8,76,0.00,CLR,,0.00,WeatherDisplay:10.37,2013-06-30 12:24:00,
2013-06-30 07:25:00,64.4,56.7,29.00,ENE,68,5.8,5.8,76,0.00,CLR,,0.00,WeatherDisplay:10.37,2013-06-30 12:25:00,
2013-06-30 07:26:00,64.4,56.7,29.00,NNW,338,4.9,4.9,76,0.00,CLR,,0.00,WeatherDisplay:10.37,2013-06-30 12:26:00,
2013-06-30 07:28:00,64.4,56.7,29.00,ENE,68,2.3,2.3,76,0.00,CLR,,0.00,WeatherDisplay:10.37,2013-06-30 12:28:00,
2013-06-30 07:29:00,64.6,57.2,29.00,North,0,5.6,5.6,77,0.00,CLR,,0.00,WeatherDisplay:10.37,2013-06-30 12:29:00,
2013-06-30 07:31:00,64.8,57.0,29.00,NW,315,3.5,3.5,76,0.00,CLR,,0.00,WeatherDisplay:10.37,2013-06-30 12:31:00,
2013-06-30 07:33:00,64.8,56.6,29.00,North,0,4.6,4.6,75,0.00,CLR,,0.00,WeatherDisplay:10.37,2013-06-30 12:33:00,
2013-06-30 07:34:00,64.8,56.3,29.00,NNE,22,6.0,6.0,74,0.00,CLR,,0.00,WeatherDisplay:10.37,2013-06-30 12:34:00,
2013-06-30 07:36:00,64.8,56.3,29.00,North,0,5.8,5.8,74,0.00,CLR,,0.00,WeatherDisplay:10.37,2013-06-30 12:36:00,
2013-06-30 07:39:00,64.8,55.9,29.00,NNE,22,2.3,2.3,73,0.00,CLR,,0.00,WeatherDisplay:10.37,2013-06-30 12:39:00,
2013-06-30 07:40:00,64.8,56.0,29.00,North,356,2.0,0.0,73,0.00,CLR,,0.00,WeatherDisplay:10.37,2013-06-30 12:40:00,
2013-06-30 07:41:00,64.9,56.1,29.00,NNW,338,3.5,3.5,73,0.00,CLR,,0.00,WeatherDisplay:10.37,2013-06-30 12:41:00,
2013-06-30 07:44:00,64.8,55.5,29.00,NNE,22,5.6,5.6,72,0.00,CLR,,0.00,WeatherDisplay:10.37,2013-06-30 12:44:00,
2013-06-30 07:45:00,64.8,55.5,29.00,North,354,3.0,0.0,72,0.00,CLR,,0.00,WeatherDisplay:10.37,2013-06-30 12:45:00,
2013-06-30 07:46:00,64.9,55.7,29.00,NNE,22,4.6,4.6,72,0.00,CLR,,0.00,WeatherDisplay:10.37,2013-06-30 12:46:00,
2013-06-30 07:48:00,64.9,55.7,29.00,NNE,22,5.8,5.8,72,0.00,CLR,,0.00,WeatherDisplay:10.37,2013-06-30 12:48:00,
2013-06-30 07:50:00,64.9,55.7,29.00,North,4,3.0,0.0,72,0.00,CLR,,0.00,WeatherDisplay:10.37,2013-06-30 12:50:00,
2013-06-30 07:52:00,65.1,55.9,29.00,NNW,338,4.9,4.9,72,0.00,CLR,,0.00,WeatherDisplay:10.37,2013-06-30 12:52:00,
2013-06-30 07:54:00,65.1,55.9,29.00,ENE,68,4.6,4.6,72,0.00,CLR,,0.00,WeatherDisplay:10.37,2013-06-30 12:54:00,
2013-06-30 07:56:00,65.3,56.0,29.00,North,0,3.8,3.8,72,0.00,CLR,,0.00,WeatherDisplay:10.37,2013-06-30 12:56:00,
2013-06-30 07:57:00,65.3,55.7,29.00,NNE,22,3.5,3.5,71,0.00,CLR,,0.00,WeatherDisplay:10.37,2013-06-30 12:57:00,
2013-06-30 08:00:00,65.1,54.7,29.00,North,0,7.4,7.4,69,0.00,CLR,,0.00,WeatherDisplay:10.37,2013-06-30 13:00:00,
2013-06-30 08:02:00,65.3,54.9,29.00,NNW,338,5.8,5.8,69,0.00,CLR,,0.00,WeatherDisplay:10.37,2013-06-30 13:02:00,
2013-06-30 08:03:00,65.5,55.0,29.00,North,0,4.6,4.6,69,0.00,CLR,,0.00,WeatherDisplay:10.37,2013-06-30 13:03:00,
2013-06-30 08:05:00,65.5,55.0,29.00,NNW,338,5.8,5.8,69,0.00,CLR,,0.00,WeatherDisplay:10.37,2013-06-30 13:05:00,
2013-06-30 08:06:00,65.5,55.0,29.00,NW,315,4.6,4.6,69,0.00,CLR,,0.00,WeatherDisplay:10.37,2013-06-30 13:06:00,
2013-06-30 08:08:00,65.5,55.0,29.00,NE,45,5.9,5.9,69,0.00,CLR,,0.00,WeatherDisplay:10.37,2013-06-30 13:08:00,
2013-06-30 08:09:00,65.5,54.6,29.00,North,0,5.8,5.8,68,0.00,CLR,,0.00,WeatherDisplay:10.37,2013-06-30 13:09:00,
2013-06-30 08:11:00,65.7,55.2,29.00,NW,315,3.3,3.3,69,0.00,CLR,,0.00,WeatherDisplay:10.37,2013-06-30 13:11:00,
2013-06-30 08:12:00,65.8,55.4,29.00,NNW,338,5.4,5.4,69,0.00,CLR,,0.00,WeatherDisplay:10.37,2013-06-30 13:12:00,
2013-06-30 08:14:00,65.8,55.0,29.00,NNW,338,4.6,4.6,68,0.00,CLR,,0.00,WeatherDisplay:10.37,2013-06-30 13:14:00,
2013-06-30 08:15:00,65.8,54.9,29.00,North,2,3.0,0.0,68,0.00,CLR,,0.00,WeatherDisplay:10.37,2013-06-30 13:15:00,
2013-06-30 08:19:00,65.8,54.6,29.00,East,90,4.6,4.6,67,0.00,CLR,,0.00,WeatherDisplay:10.37,2013-06-30 13:19:00,
2013-06-30 08:20:00,65.8,54.2,29.00,ENE,68,5.8,5.8,66,0.00,CLR,,0.00,WeatherDisplay:10.37,2013-06-30 13:20:00,
2013-06-30 08:21:00,65.8,54.2,29.00,NNW,338,10.4,10.4,66,0.00,CLR,,0.00,WeatherDisplay:10.37,2013-06-30 13:21:00,
2013-06-30 08:22:00,65.8,53.7,29.00,NNE,22,5.8,5.8,65,0.00,CLR,,0.00,WeatherDisplay:10.37,2013-06-30 13:22:00,
2013-06-30 08:23:00,65.8,53.3,29.00,NNW,338,5.8,5.8,64,0.00,CLR,,0.00,WeatherDisplay:10.37,2013-06-30 13:23:00,
2013-06-30 08:26:00,65.8,52.5,29.00,North,0,9.2,9.2,62,0.00,CLR,,0.00,WeatherDisplay:10.37,2013-06-30 13:26:00,
2013-06-30 08:27:00,65.8,52.5,29.00,NNE,22,7.1,7.1,62,0.00,CLR,,0.00,WeatherDisplay:10.37,2013-06-30 13:27:00,
2013-06-30 08:30:00,65.8,52.0,29.00,NNE,12,5.0,0.0,61,0.00,CLR,,0.00,WeatherDisplay:10.37,2013-06-30 13:30:00,
2013-06-30 08:32:00,66.0,52.2,29.03,NW,315,6.9,6.9,61,0.00,CLR,,0.00,WeatherDisplay:10.37,2013-06-30 13:32:00,
2013-06-30 08:36:00,66.2,52.3,29.03,NE,45,5.8,5.8,61,0.00,CLR,,0.00,WeatherDisplay:10.37,2013-06-30 13:36:00,
2013-06-30 08:37:00,66.2,52.3,29.03,NNE,22,5.8,5.8,61,0.00,CLR,,0.00,WeatherDisplay:10.37,2013-06-30 13:37:00,
2013-06-30 08:38:00,66.2,52.3,29.03,West,270,4.6,4.6,61,0.00,CLR,,0.00,WeatherDisplay:10.37,2013-06-30 13:38:00,
2013-06-30 08:41:00,66.4,52.5,29.03,NE,45,5.8,5.8,61,0.00,CLR,,0.00,WeatherDisplay:10.37,2013-06-30 13:41:00,
2013-06-30 08:42:00,66.2,50.5,29.03,NNE,22,6.9,6.9,57,0.00,CLR,,0.00,WeatherDisplay:10.37,2013-06-30 13:42:00,
2013-06-30 08:43:00,66.2,50.5,29.03,North,0,6.9,6.9,57,0.00,CLR,,0.00,WeatherDisplay:10.37,2013-06-30 13:43:00,
2013-06-30 08:44:00,66.2,50.0,29.03,North,0,6.9,6.9,56,0.00,CLR,,0.00,WeatherDisplay:10.37,2013-06-30 13:44:00,
2013-06-30 08:47:00,66.6,51.3,29.03,North,0,7.1,7.1,58,0.00,CLR,,0.00,WeatherDisplay:10.37,2013-06-30 13:47:00,
2013-06-30 08:48:00,66.6,50.8,29.03,ENE,68,6.9,6.9,57,0.00,CLR,,0.00,WeatherDisplay:10.37,2013-06-30 13:48:00,
2013-06-30 08:50:00,66.7,51.4,29.03,NNE,18,5.0,0.0,58,0.00,CLR,,0.00,WeatherDisplay:10.37,2013-06-30 13:50:00,
2013-06-30 08:52:00,66.7,50.5,29.03,NNW,338,5.8,5.8,56,0.00,CLR,,0.00,WeatherDisplay:10.37,2013-06-30 13:52:00,
2013-06-30 08:53:00,66.9,51.2,29.03,North,0,5.8,5.8,57,0.00,CLR,,0.00,WeatherDisplay:10.37,2013-06-30 13:53:00,
2013-06-30 08:55:00,67.0,51.7,29.03,NNE,13,3.0,0.0,58,0.00,CLR,,0.00,WeatherDisplay:10.37,2013-06-30 13:55:00,
2013-06-30 08:56:00,67.1,50.9,29.03,North,0,6.9,6.9,56,0.00,CLR,,0.00,WeatherDisplay:10.37,2013-06-30 13:56:00,
2013-06-30 08:57:00,67.1,50.9,29.03,NNE,22,4.6,4.6,56,0.00,CLR,,0.00,WeatherDisplay:10.37,2013-06-30 13:57:00,
2013-06-30 08:58:00,67.1,50.9,29.03,North,0,4.6,4.6,56,0.00,CLR,,0.00,WeatherDisplay:10.37,2013-06-30 13:58:00,
2013-06-30 09:00:00,67.4,52.1,29.03,North,5,2.0,0.0,58,0.00,CLR,,0.00,WeatherDisplay:10.37,2013-06-30 14:00:00,
2013-06-30 09:03:00,67.6,51.4,29.03,NNE,22,4.9,4.9,56,0.00,CLR,,0.00,WeatherDisplay:10.37,2013-06-30 14:03:00,
2013-06-30 09:05:00,67.8,50.1,29.03,NNW,338,8.1,8.1,53,0.00,CLR,,0.00,WeatherDisplay:10.37,2013-06-30 14:05:00,
2013-06-30 09:06:00,67.8,50.1,29.03,NNE,22,4.6,4.6,53,0.00,CLR,,0.00,WeatherDisplay:10.37,2013-06-30 14:06:00,
2013-06-30 09:08:00,67.8,50.1,29.03,NW,315,5.9,5.9,53,0.00,CLR,,0.00,WeatherDisplay:10.37,2013-06-30 14:08:00,
2013-06-30 09:12:00,68.2,49.4,29.03,NNE,22,6.9,6.9,51,0.00,CLR,,0.00,WeatherDisplay:10.37,2013-06-30 14:12:00,
2013-06-30 09:13:00,68.4,50.0,29.03,NNE,22,4.3,4.3,52,0.00,CLR,,0.00,WeatherDisplay:10.37,2013-06-30 14:13:00,
2013-06-30 09:16:00,68.9,51.1,29.03,NW,315,6.9,6.9,53,0.00,CLR,,0.00,WeatherDisplay:10.37,2013-06-30 14:16:00,
2013-06-30 09:18:00,69.3,50.9,29.03,NNE,22,5.8,5.8,52,0.00,CLR,,0.00,WeatherDisplay:10.37,2013-06-30 14:18:00,
2013-06-30 09:20:00,69.8,51.4,29.03,NW,315,5.8,5.8,52,0.00,CLR,,0.00,WeatherDisplay:10.37,2013-06-30 14:20:00,
2013-06-30 09:21:00,70.0,51.0,29.03,NNE,22,10.4,10.4,51,0.00,CLR,,0.00,WeatherDisplay:10.37,2013-06-30 14:21:00,
2013-06-30 09:23:00,70.0,49.9,29.03,North,0,8.1,8.1,49,0.00,CLR,,0.00,WeatherDisplay:10.37,2013-06-30 14:23:00,
2013-06-30 09:24:00,70.3,50.8,29.03,North,0,6.9,6.9,50,0.00,CLR,,0.00,WeatherDisplay:10.37,2013-06-30 14:24:00,
2013-06-30 09:27:00,70.3,50.3,29.03,North,0,5.8,5.8,49,0.00,CLR,,0.00,WeatherDisplay:10.37,2013-06-30 14:27:00,
2013-06-30 09:28:00,70.5,50.4,29.03,NNW,338,5.8,5.8,49,0.00,CLR,,0.00,WeatherDisplay:10.37,2013-06-30 14:28:00,
2013-06-30 09:30:00,70.7,50.0,29.03,NW,315,9.2,9.2,48,0.00,CLR,,0.00,WeatherDisplay:10.37,2013-06-30 14:30:00,
2013-06-30 09:33:00,70.7,49.5,29.03,NE,45,6.9,6.9,47,0.00,CLR,,0.00,WeatherDisplay:10.37,2013-06-30 14:33:00,
2013-06-30 09:34:00,70.9,50.2,29.03,NNE,22,5.8,5.8,48,0.00,CLR,,0.00,WeatherDisplay:10.37,2013-06-30 14:34:00,
2013-06-30 09:35:00,70.8,50.1,29.03,NNE,12,3.0,0.0,48,0.00,CLR,,0.00,WeatherDisplay:10.37,2013-06-30 14:35:00,
2013-06-30 09:38:00,71.2,50.0,29.03,NE,45,6.9,6.9,47,0.00,CLR,,0.00,WeatherDisplay:10.37,2013-06-30 14:38:00,
2013-06-30 09:39:00,71.4,50.1,29.03,NNW,338,5.8,5.8,47,0.00,CLR,,0.00,WeatherDisplay:10.37,2013-06-30 14:39:00,
2013-06-30 09:40:00,71.2,48.8,29.03,ENE,68,9.2,9.2,45,0.00,CLR,,0.00,WeatherDisplay:10.37,2013-06-30 14:40:00,
2013-06-30 09:41:00,71.2,49.4,29.03,NNW,338,6.9,6.9,46,0.00,CLR,,0.00,WeatherDisplay:10.37,2013-06-30 14:41:00,
2013-06-30 09:43:00,71.6,49.7,29.03,ENE,68,5.9,5.9,46,0.00,CLR,,0.00,WeatherDisplay:10.37,2013-06-30 14:43:00,
2013-06-30 09:45:00,71.4,49.0,29.03,NNW,338,6.9,6.9,45,0.00,CLR,,0.00,WeatherDisplay:10.37,2013-06-30 14:45:00,
2013-06-30 09:46:00,71.8,49.3,29.03,North,0,5.8,5.8,45,0.00,CLR,,0.00,WeatherDisplay:10.37,2013-06-30 14:46:00,
2013-06-30 09:47:00,71.6,49.1,29.00,ENE,68,9.2,9.2,45,0.00,CLR,,0.00,WeatherDisplay:10.37,2013-06-30 14:47:00,
2013-06-30 09:48:00,71.2,47.6,29.00,NE,45,10.4,10.4,43,0.00,CLR,,0.00,WeatherDisplay:10.37,2013-06-30 14:48:00,
2013-06-30 09:51:00,71.6,48.5,29.00,North,0,8.1,8.1,44,0.00,CLR,,0.00,WeatherDisplay:10.37,2013-06-30 14:51:00,
2013-06-30 09:52:00,72.0,49.5,29.00,North,0,8.1,8.1,45,0.00,CLR,,0.00,WeatherDisplay:10.37,2013-06-30 14:52:00,
2013-06-30 09:53:00,72.0,49.5,29.00,East,90,5.9,5.9,45,0.00,CLR,,0.00,WeatherDisplay:10.37,2013-06-30 14:53:00,
2013-06-30 09:56:00,72.0,48.2,29.00,NNW,338,9.2,9.2,43,0.00,CLR,,0.00,WeatherDisplay:10.37,2013-06-30 14:56:00,
2013-06-30 09:57:00,71.6,47.3,29.00,NNE,22,9.2,9.2,42,0.00,CLR,,0.00,WeatherDisplay:10.37,2013-06-30 14:57:00,
2013-06-30 09:58:00,72.0,48.2,29.00,North,0,8.1,8.1,43,0.00,CLR,,0.00,WeatherDisplay:10.37,2013-06-30 14:58:00,
2013-06-30 09:59:00,72.0,48.2,29.00,NNW,338,5.8,5.8,43,0.00,CLR,,0.00,WeatherDisplay:10.37,2013-06-30 14:59:00,
2013-06-30 10:01:00,72.5,50.5,29.03,ENE,68,5.8,5.8,46,0.00,CLR,,0.00,WeatherDisplay:10.37,2013-06-30 15:01:00,
2013-06-30 10:03:00,72.5,49.9,29.03,NNE,22,9.2,9.2,45,0.00,CLR,,0.00,WeatherDisplay:10.37,2013-06-30 15:03:00,
2013-06-30 10:05:00,72.5,48.1,29.03,ENE,68,6.9,6.9,42,0.00,CLR,,0.00,WeatherDisplay:10.37,2013-06-30 15:05:00,
2013-06-30 10:07:00,72.5,48.7,29.03,ENE,68,9.2,9.2,43,0.00,CLR,,0.00,WeatherDisplay:10.37,2013-06-30 15:07:00,
2013-06-30 10:08:00,72.9,49.7,29.03,ENE,68,9.2,9.2,44,0.00,CLR,,0.00,WeatherDisplay:10.37,2013-06-30 15:08:00,
2013-06-30 10:10:00,72.9,49.1,29.03,NNE,18,6.0,0.0,43,0.00,CLR,,0.00,WeatherDisplay:10.37,2013-06-30 15:10:00,
2013-06-30 10:13:00,73.4,49.5,29.03,North,0,9.2,9.2,43,0.00,CLR,,0.00,WeatherDisplay:10.37,2013-06-30 15:13:00,
2013-06-30 10:14:00,73.4,49.5,29.03,NNE,22,9.2,9.2,43,0.00,CLR,,0.00,WeatherDisplay:10.37,2013-06-30 15:14:00,
2013-06-30 10:15:00,73.0,47.9,29.03,NNE,22,8.1,8.1,41,0.00,CLR,,0.00,WeatherDisplay:10.37,2013-06-30 15:15:00,
2013-06-30 10:16:00,73.0,47.9,29.03,NNW,338,10.4,10.4,41,0.00,CLR,,0.00,WeatherDisplay:10.37,2013-06-30 15:16:00,
2013-06-30 10:18:00,73.2,48.1,29.03,NE,45,8.1,8.1,41,0.00,CLR,,0.00,WeatherDisplay:10.37,2013-06-30 15:18:00,
2013-06-30 10:19:00,73.4,48.9,29.03,ENE,68,5.8,5.8,42,0.00,CLR,,0.00,WeatherDisplay:10.37,2013-06-30 15:19:00,
2013-06-30 10:21:00,73.4,48.9,29.03,NNE,22,8.1,8.1,42,0.00,CLR,,0.00,WeatherDisplay:10.37,2013-06-30 15:21:00,
2013-06-30 10:22:00,73.4,48.9,29.03,North,0,8.1,8.1,42,0.00,CLR,,0.00,WeatherDisplay:10.37,2013-06-30 15:22:00,
2013-06-30 10:25:00,73.8,49.9,29.03,NNE,20,5.0,0.0,43,0.00,CLR,,0.00,WeatherDisplay:10.37,2013-06-30 15:25:00,
2013-06-30 10:27:00,73.6,47.8,29.03,ENE,68,9.2,9.2,40,0.00,CLR,,0.00,WeatherDisplay:10.37,2013-06-30 15:27:00,
2013-06-30 10:29:00,73.4,46.9,29.03,NE,45,8.1,8.1,39,0.00,CLR,,0.00,WeatherDisplay:10.37,2013-06-30 15:29:00,
2013-06-30 10:30:00,73.6,47.1,29.03,North,0,9.2,9.2,39,0.00,CLR,,0.00,WeatherDisplay:10.37,2013-06-30 15:30:00,
2013-06-30 10:31:00,73.6,47.1,29.03,NE,45,10.4,10.4,39,0.00,CLR,,0.00,WeatherDisplay:10.37,2013-06-30 15:31:00,
2013-06-30 10:32:00,73.6,47.8,29.00,NE,45,6.4,6.4,40,0.00,CLR,,0.00,WeatherDisplay:10.37,2013-06-30 15:32:00,
2013-06-30 10:34:00,73.4,47.6,29.00,NNW,338,11.5,11.5,40,0.00,CLR,,0.00,WeatherDisplay:10.37,2013-06-30 15:34:00,
2013-06-30 10:37:00,73.8,49.9,29.00,North,0,4.6,4.6,43,0.00,CLR,,0.00,WeatherDisplay:10.37,2013-06-30 15:37:00,
2013-06-30 10:38:00,73.8,49.9,29.00,NNW,338,5.8,5.8,43,0.00,CLR,,0.00,WeatherDisplay:10.37,2013-06-30 15:38:00,
2013-06-30 10:39:00,74.1,49.6,29.00,NNW,338,4.6,4.7,42,0.00,CLR,,0.00,WeatherDisplay:10.37,2013-06-30 15:39:00,
2013-06-30 10:40:00,74.2,49.6,29.00,NNE,25,3.0,0.0,42,0.00,CLR,,0.00,WeatherDisplay:10.37,2013-06-30 15:40:00,
2013-06-30 10:43:00,74.3,47.7,29.00,North,0,5.8,5.8,39,0.00,CLR,,0.00,WeatherDisplay:10.37,2013-06-30 15:43:00,
2013-06-30 10:44:00,74.5,48.6,29.00,North,0,10.9,10.9,40,0.00,CLR,,0.00,WeatherDisplay:10.37,2013-06-30 15:44:00,
2013-06-30 10:45:00,74.8,48.9,29.00,SE,135,11.5,11.5,40,0.00,CLR,,0.00,WeatherDisplay:10.37,2013-06-30 15:45:00,
2013-06-30 10:46:00,75.0,50.4,29.03,NNW,338,8.5,8.5,42,0.00,CLR,,0.00,WeatherDisplay:10.37,2013-06-30 15:46:00,
2013-06-30 10:49:00,74.7,48.7,29.03,ESE,112,9.2,9.2,40,0.00,CLR,,0.00,WeatherDisplay:10.37,2013-06-30 15:49:00,
2013-06-30 10:50:00,74.7,49.4,29.03,ENE,68,5.8,5.8,41,0.00,CLR,,0.00,WeatherDisplay:10.37,2013-06-30 15:50:00,
2013-06-30 10:51:00,74.5,47.2,29.03,NNE,22,5.4,5.4,38,0.00,CLR,,0.00,WeatherDisplay:10.37,2013-06-30 15:51:00,
2013-06-30 10:52:00,74.5,47.2,29.03,NNE,22,12.7,12.7,38,0.00,CLR,,0.00,WeatherDisplay:10.37,2013-06-30 15:52:00,
2013-06-30 10:54:00,74.5,46.5,29.03,NNE,22,10.4,10.4,37,0.00,CLR,,0.00,WeatherDisplay:10.37,2013-06-30 15:54:00,
2013-06-30 10:57:00,74.7,47.4,29.03,North,0,6.9,6.9,38,0.00,CLR,,0.00,WeatherDisplay:10.37,2013-06-30 15:57:00,
2013-06-30 10:58:00,74.7,48.1,29.03,NNW,338,7.1,7.1,39,0.00,CLR,,0.00,WeatherDisplay:10.37,2013-06-30 15:58:00,
2013-06-30 11:00:00,75.0,47.7,29.03,West,270,3.5,3.5,38,0.00,CLR,,0.00,WeatherDisplay:10.37,2013-06-30 16:00:00,
2013-06-30 11:01:00,75.0,48.4,29.03,NNE,22,3.8,3.8,39,0.00,CLR,,0.00,WeatherDisplay:10.37,2013-06-30 16:01:00,
2013-06-30 11:03:00,74.8,45.3,29.00,North,0,6.9,6.9,35,0.00,CLR,,0.00,WeatherDisplay:10.37,2013-06-30 16:03:00,
2013-06-30 11:04:00,75.0,46.2,29.00,North,0,4.6,4.6,36,0.00,CLR,,0.00,WeatherDisplay:10.37,2013-06-30 16:04:00,
2013-06-30 11:06:00,75.2,47.1,29.00,NNW,338,4.6,4.6,37,0.00,CLR,,0.00,WeatherDisplay:10.37,2013-06-30 16:06:00,
2013-06-30 11:07:00,75.4,48.0,29.00,NNW,338,2.3,2.3,38,0.00,CLR,,0.00,WeatherDisplay:10.37,2013-06-30 16:07:00,
2013-06-30 11:08:00,75.6,48.9,29.00,NNW,338,3.5,3.5,39,0.00,CLR,,0.00,WeatherDisplay:10.37,2013-06-30 16:08:00,
2013-06-30 11:09:00,75.6,46.0,29.00,North,0,6.2,6.2,35,0.00,CLR,,0.00,WeatherDisplay:10.37,2013-06-30 16:09:00,
2013-06-30 11:13:00,75.0,44.0,29.00,North,0,13.8,13.8,33,0.00,CLR,,0.00,WeatherDisplay:10.37,2013-06-30 16:13:00,
2013-06-30 11:14:00,75.0,44.0,29.00,ENE,68,11.5,11.5,33,0.00,CLR,,0.00,WeatherDisplay:10.37,2013-06-30 16:14:00,
2013-06-30 11:15:00,75.0,44.7,29.00,NE,35,8.0,0.0,34,0.00,CLR,,0.00,WeatherDisplay:10.37,2013-06-30 16:15:00,
2013-06-30 11:20:00,75.1,44.8,29.03,NNE,33,6.0,0.0,34,0.00,CLR,,0.00,WeatherDisplay:10.37,2013-06-30 16:20:00,
2013-06-30 11:21:00,75.2,44.1,29.03,NNE,22,12.7,12.7,33,0.00,CLR,,0.00,WeatherDisplay:10.37,2013-06-30 16:21:00,
2013-06-30 11:22:00,75.4,45.1,29.03,North,0,12.7,12.7,34,0.00,CLR,,0.00,WeatherDisplay:10.37,2013-06-30 16:22:00,
2013-06-30 11:25:00,75.0,44.7,29.03,ENE,68,9.2,9.2,34,0.00,CLR,,0.00,WeatherDisplay:10.37,2013-06-30 16:25:00,
2013-06-30 11:26:00,75.2,44.9,29.03,ENE,68,9.2,9.2,34,0.00,CLR,,0.00,WeatherDisplay:10.37,2013-06-30 16:26:00,
2013-06-30 11:27:00,75.0,44.7,29.03,ENE,68,15.0,15.0,34,0.00,CLR,,0.00,WeatherDisplay:10.37,2013-06-30 16:27:00,
2013-06-30 11:28:00,75.0,45.5,29.03,NNW,338,6.9,6.9,35,0.00,CLR,,0.00,WeatherDisplay:10.37,2013-06-30 16:28:00,
2013-06-30 11:30:00,75.0,45.5,29.03,NE,45,6.9,6.9,35,0.00,CLR,,0.00,WeatherDisplay:10.37,2013-06-30 16:30:00,
2013-06-30 11:31:00,75.0,44.7,29.03,NNE,22,13.7,13.7,34,0.00,CLR,,0.00,WeatherDisplay:10.37,2013-06-30 16:31:00,
2013-06-30 11:33:00,74.7,44.4,29.03,NNE,22,10.4,10.4,34,0.00,CLR,,0.00,WeatherDisplay:10.37,2013-06-30 16:33:00,
2013-06-30 11:34:00,74.3,44.1,29.03,SSW,202,12.7,12.7,34,0.00,CLR,,0.00,WeatherDisplay:10.37,2013-06-30 16:34:00,
2013-06-30 11:36:00,74.1,43.2,29.03,North,0,5.8,5.8,33,0.00,CLR,,0.00,WeatherDisplay:10.37,2013-06-30 16:36:00,
2013-06-30 11:37:00,74.1,43.2,29.03,NE,45,10.5,10.5,33,0.00,CLR,,0.00,WeatherDisplay:10.37,2013-06-30 16:37:00,
2013-06-30 11:38:00,74.3,44.9,29.03,ENE,68,10.4,10.4,35,0.00,CLR,,0.00,WeatherDisplay:10.37,2013-06-30 16:38:00,
2013-06-30 11:41:00,74.5,45.8,29.03,ENE,68,10.7,10.7,36,0.00,CLR,,0.00,WeatherDisplay:10.37,2013-06-30 16:41:00,
2013-06-30 11:42:00,74.5,45.0,29.03,NNW,338,10.4,10.4,35,0.00,CLR,,0.00,WeatherDisplay:10.37,2013-06-30 16:42:00,
2013-06-30 11:44:00,74.8,45.3,29.03,NNE,22,9.2,9.2,35,0.00,CLR,,0.00,WeatherDisplay:10.37,2013-06-30 16:44:00,
2013-06-30 11:45:00,74.8,45.3,29.03,NE,46,7.0,0.0,35,0.00,CLR,,0.00,WeatherDisplay:10.37,2013-06-30 16:45:00,
2013-06-30 11:47:00,75.0,45.5,29.03,NNW,338,8.1,8.1,35,0.00,CLR,,0.00,WeatherDisplay:10.37,2013-06-30 16:47:00,
2013-06-30 11:48:00,75.4,47.3,29.03,NNE,22,6.9,6.9,37,0.00,CLR,,0.00,WeatherDisplay:10.37,2013-06-30 16:48:00,
2013-06-30 11:50:00,75.6,46.0,29.03,NE,34,6.0,0.0,35,0.00,CLR,,0.00,WeatherDisplay:10.37,2013-06-30 16:50:00,
2013-06-30 11:52:00,76.3,45.8,29.03,NE,45,8.1,8.1,34,0.00,CLR,,0.00,WeatherDisplay:10.37,2013-06-30 16:52:00,
2013-06-30 11:55:00,76.1,46.4,29.03,NNE,22,6.0,0.0,35,0.00,CLR,,0.00,WeatherDisplay:10.37,2013-06-30 16:55:00,
2013-06-30 11:57:00,75.6,44.4,29.03,NNE,22,8.1,8.1,33,0.00,CLR,,0.00,WeatherDisplay:10.37,2013-06-30 16:57:00,
2013-06-30 12:01:00,75.9,46.3,29.03,NNE,22,8.1,8.1,35,0.00,CLR,,0.00,WeatherDisplay:10.37,2013-06-30 17:01:00,
2013-06-30 12:02:00,75.9,45.5,29.03,NNE,22,8.1,8.1,34,0.00,CLR,,0.00,WeatherDisplay:10.37,2013-06-30 17:02:00,
2013-06-30 12:05:00,75.6,44.4,29.03,NE,44,7.0,0.0,33,0.00,CLR,,0.00,WeatherDisplay:10.37,2013-06-30 17:05:00,
2013-06-30 12:09:00,75.6,44.4,29.03,ENE,68,10.4,10.4,33,0.00,CLR,,0.00,WeatherDisplay:10.37,2013-06-30 17:09:00,
2013-06-30 12:10:00,75.7,44.6,29.03,SE,135,8.1,8.1,33,0.00,CLR,,0.00,WeatherDisplay:10.37,2013-06-30 17:10:00,
2013-06-30 12:11:00,75.7,44.6,29.03,NE,45,8.1,8.1,33,0.00,CLR,,0.00,WeatherDisplay:10.37,2013-06-30 17:11:00,
2013-06-30 12:13:00,76.3,47.4,29.03,NE,45,6.9,6.9,36,0.00,CLR,,0.00,WeatherDisplay:10.37,2013-06-30 17:13:00,
2013-06-30 12:16:00,76.3,45.8,29.06,NE,45,12.7,12.7,34,0.00,CLR,,0.00,WeatherDisplay:10.37,2013-06-30 17:16:00,
2013-06-30 12:17:00,76.3,45.8,29.06,NNE,22,6.9,6.9,34,0.00,CLR,,0.00,WeatherDisplay:10.37,2013-06-30 17:17:00,
2013-06-30 12:18:00,76.1,44.9,29.06,East,90,10.4,10.4,33,0.00,CLR,,0.00,WeatherDisplay:10.37,2013-06-30 17:18:00,
2013-06-30 12:19:00,76.3,45.8,29.06,ENE,68,10.4,10.4,34,0.00,CLR,,0.00,WeatherDisplay:10.37,2013-06-30 17:19:00,
2013-06-30 12:21:00,76.3,45.1,29.06,NNE,22,7.4,7.4,33,0.00,CLR,,0.00,WeatherDisplay:10.37,2013-06-30 17:21:00,
2013-06-30 12:22:00,76.5,46.0,29.06,NNE,22,6.9,6.9,34,0.00,CLR,,0.00,WeatherDisplay:10.37,2013-06-30 17:22:00,
2013-06-30 12:23:00,76.5,44.4,29.06,WNW,292,8.1,8.1,32,0.00,CLR,,0.00,WeatherDisplay:10.37,2013-06-30 17:23:00,
2013-06-30 12:24:00,76.5,45.2,29.06,ESE,112,7.8,7.8,33,0.00,CLR,,0.00,WeatherDisplay:10.37,2013-06-30 17:24:00,
2013-06-30 12:26:00,76.5,45.2,29.06,NNW,338,8.1,8.1,33,0.00,CLR,,0.00,WeatherDisplay:10.37,2013-06-30 17:26:00,
2013-06-30 12:27:00,76.3,44.2,29.06,ENE,68,8.1,8.1,32,0.00,CLR,,0.00,WeatherDisplay:10.37,2013-06-30 17:27:00,
2013-06-30 12:29:00,76.3,45.1,29.06,ENE,68,7.1,7.1,33,0.00,CLR,,0.00,WeatherDisplay:10.37,2013-06-30 17:29:00,
2013-06-30 12:30:00,76.3,45.1,29.06,ENE,68,9.0,9.0,33,0.00,CLR,,0.00,WeatherDisplay:10.37,2013-06-30 17:30:00,
2013-06-30 12:31:00,76.6,45.4,29.03,East,90,10.4,10.4,33,0.00,CLR,,0.00,WeatherDisplay:10.37,2013-06-30 17:31:00,
2013-06-30 12:34:00,77.2,45.8,29.03,ENE,68,7.6,7.6,33,0.00,CLR,,0.00,WeatherDisplay:10.37,2013-06-30 17:34:00,
2013-06-30 12:35:00,77.4,47.6,29.03,ENE,68,8.1,8.1,35,0.00,CLR,,0.00,WeatherDisplay:10.37,2013-06-30 17:35:00,
2013-06-30 12:36:00,77.0,44.9,29.03,NNE,22,9.2,9.2,32,0.00,CLR,,0.00,WeatherDisplay:10.37,2013-06-30 17:36:00,
2013-06-30 12:39:00,77.4,46.0,29.03,ENE,68,7.8,7.8,33,0.00,CLR,,0.00,WeatherDisplay:10.37,2013-06-30 17:39:00,
2013-06-30 12:40:00,77.4,45.2,29.03,NNE,22,9.7,9.7,32,0.00,CLR,,0.00,WeatherDisplay:10.37,2013-06-30 17:40:00,
2013-06-30 12:41:00,77.2,45.0,29.03,NNW,338,9.2,9.2,32,0.00,CLR,,0.00,WeatherDisplay:10.37,2013-06-30 17:41:00,
2013-06-30 12:42:00,77.4,46.0,29.03,North,0,7.6,7.6,33,0.00,CLR,,0.00,WeatherDisplay:10.37,2013-06-30 17:42:00,
2013-06-30 12:45:00,77.3,45.1,29.03,NNE,30,6.0,0.0,32,0.00,CLR,,0.00,WeatherDisplay:10.37,2013-06-30 17:45:00,
2013-06-30 12:48:00,77.4,44.4,29.09,NE,45,8.1,8.1,31,0.00,CLR,,0.00,WeatherDisplay:10.37,2013-06-30 17:48:00,
2013-06-30 12:49:00,77.4,44.4,29.09,NW,315,8.1,8.1,31,0.00,CLR,,0.00,WeatherDisplay:10.37,2013-06-30 17:49:00,
2013-06-30 12:50:00,77.4,44.4,29.09,NNE,24,6.0,0.0,31,0.00,CLR,,0.00,WeatherDisplay:10.37,2013-06-30 17:50:00,
2013-06-30 12:51:00,77.9,46.5,29.09,NE,45,8.1,8.1,33,0.00,CLR,,0.00,WeatherDisplay:10.37,2013-06-30 17:51:00,
2013-06-30 12:53:00,77.9,46.5,29.09,NNE,22,10.0,10.0,33,0.00,CLR,,0.00,WeatherDisplay:10.37,2013-06-30 17:53:00,
2013-06-30 12:55:00,77.9,45.7,29.09,NNE,19,5.0,0.0,32,0.00,CLR,,0.00,WeatherDisplay:10.37,2013-06-30 17:55:00,
2013-06-30 12:57:00,77.2,44.2,29.09,North,0,9.2,9.2,31,0.00,CLR,,0.00,WeatherDisplay:10.37,2013-06-30 17:57:00,
2013-06-30 12:59:00,77.2,44.2,29.09,NNW,338,5.8,5.8,31,0.00,CLR,,0.00,WeatherDisplay:10.37,2013-06-30 17:59:00,
2013-06-30 13:00:00,77.2,44.2,29.09,WNW,292,6.9,6.9,31,0.00,CLR,,0.00,WeatherDisplay:10.37,2013-06-30 18:00:00,
2013-06-30 13:01:00,77.2,45.0,29.09,NW,315,5.9,5.9,32,0.00,CLR,,0.00,WeatherDisplay:10.37,2013-06-30 18:01:00,
2013-06-30 13:03:00,77.4,45.2,29.03,North,0,5.8,5.8,32,0.00,CLR,,0.00,WeatherDisplay:10.37,2013-06-30 18:03:00,
2013-06-30 13:05:00,77.6,45.4,29.03,NNE,27,3.0,0.0,32,0.00,CLR,,0.00,WeatherDisplay:10.37,2013-06-30 18:05:00,
2013-06-30 13:07:00,78.1,45.8,29.03,ENE,68,6.9,6.9,32,0.00,CLR,,0.00,WeatherDisplay:10.37,2013-06-30 18:07:00,
2013-06-30 13:08:00,78.1,45.8,29.03,NNE,22,13.8,13.8,32,0.00,CLR,,0.00,WeatherDisplay:10.37,2013-06-30 18:08:00,
2013-06-30 13:11:00,78.3,45.1,29.03,NE,45,10.4,10.4,31,0.00,CLR,,0.00,WeatherDisplay:10.37,2013-06-30 18:11:00,
2013-06-30 13:12:00,78.4,45.3,29.03,ENE,68,10.4,10.4,31,0.00,CLR,,0.00,WeatherDisplay:10.37,2013-06-30 18:12:00,
2013-06-30 13:14:00,78.6,46.3,29.03,ENE,68,4.6,4.6,32,0.00,CLR,,0.00,WeatherDisplay:10.37,2013-06-30 18:14:00,
2013-06-30 13:16:00,78.8,46.4,29.06,NNE,22,6.9,6.9,32,0.00,CLR,,0.00,WeatherDisplay:10.37,2013-06-30 18:16:00,
2013-06-30 13:17:00,79.0,46.6,29.06,ENE,68,5.8,5.8,32,0.00,CLR,,0.00,WeatherDisplay:10.37,2013-06-30 18:17:00,
2013-06-30 13:18:00,78.8,45.6,29.06,NNE,22,8.1,8.1,31,0.00,CLR,,0.00,WeatherDisplay:10.37,2013-06-30 18:18:00,
2013-06-30 13:19:00,78.8,45.6,29.06,North,0,6.9,6.9,31,0.00,CLR,,0.00,WeatherDisplay:10.37,2013-06-30 18:19:00,
2013-06-30 13:20:00,78.9,44.8,29.06,NNE,23,5.0,0.0,30,0.00,CLR,,0.00,WeatherDisplay:10.37,2013-06-30 18:20:00,
2013-06-30 13:23:00,78.8,41.0,29.06,NNE,22,9.2,9.2,26,0.00,CLR,,0.00,WeatherDisplay:10.37,2013-06-30 18:23:00,
2013-06-30 13:24:00,78.8,41.0,29.06,NNE,22,8.1,8.1,26,0.00,CLR,,0.00,WeatherDisplay:10.37,2013-06-30 18:24:00,
2013-06-30 13:25:00,79.0,44.9,29.06,NNE,22,6.9,6.9,30,0.00,CLR,,0.00,WeatherDisplay:10.37,2013-06-30 18:25:00,
2013-06-30 13:26:00,79.0,44.9,29.06,NE,45,8.5,8.5,30,0.00,CLR,,0.00,WeatherDisplay:10.37,2013-06-30 18:26:00,
2013-06-30 13:29:00,79.0,43.1,29.06,NNE,22,12.7,12.7,28,0.00,CLR,,0.00,WeatherDisplay:10.37,2013-06-30 18:29:00,
2013-06-30 13:30:00,79.0,43.1,29.06,NNE,22,5.8,5.8,28,0.00,CLR,,0.00,WeatherDisplay:10.37,2013-06-30 18:30:00,
2013-06-30 13:31:00,79.0,44.9,29.06,NNE,22,7.4,7.4,30,0.00,CLR,,0.00,WeatherDisplay:10.37,2013-06-30 18:31:00,
2013-06-30 13:35:00,77.9,44.8,29.03,NNW,338,8.1,8.1,31,0.00,CLR,,0.00,WeatherDisplay:10.37,2013-06-30 18:35:00,
2013-06-30 13:36:00,77.4,43.5,29.03,NNW,338,8.1,8.1,30,0.00,CLR,,0.00,WeatherDisplay:10.37,2013-06-30 18:36:00,
2013-06-30 13:37:00,77.4,43.5,29.03,East,90,5.8,5.8,30,0.00,CLR,,0.00,WeatherDisplay:10.37,2013-06-30 18:37:00,
2013-06-30 13:38:00,77.4,44.4,29.03,North,0,5.6,5.6,31,0.00,CLR,,0.00,WeatherDisplay:10.37,2013-06-30 18:38:00,
2013-06-30 13:40:00,77.3,44.3,29.03,NNE,20,3.0,0.0,31,0.00,CLR,,0.00,WeatherDisplay:10.37,2013-06-30 18:40:00,
2013-06-30 13:41:00,78.1,45.8,29.03,ENE,68,4.0,4.3,32,0.00,CLR,,0.00,WeatherDisplay:10.37,2013-06-30 18:41:00,
2013-06-30 13:43:00,78.3,45.1,29.03,NE,45,9.2,9.2,31,0.00,CLR,,0.00,WeatherDisplay:10.37,2013-06-30 18:43:00,
2013-06-30 13:44:00,78.4,46.1,29.03,NNE,22,10.4,10.4,32,0.00,CLR,,0.00,WeatherDisplay:10.37,2013-06-30 18:44:00,
2013-06-30 13:45:00,78.8,45.6,29.03,NNW,338,6.9,6.9,31,0.00,CLR,,0.00,WeatherDisplay:10.37,2013-06-30 18:45:00,
2013-06-30 13:46:00,78.6,45.4,29.03,NNW,338,7.8,7.8,31,0.00,CLR,,0.00,WeatherDisplay:10.37,2013-06-30 18:46:00,
2013-06-30 13:48:00,78.4,45.3,29.03,NW,315,5.8,5.8,31,0.00,CLR,,0.00,WeatherDisplay:10.37,2013-06-30 18:48:00,
2013-06-30 13:49:00,78.3,45.1,29.03,NNW,338,5.8,5.8,31,0.00,CLR,,0.00,WeatherDisplay:10.37,2013-06-30 18:49:00,
2013-06-30 13:51:00,78.3,45.1,29.03,NNW,338,6.9,6.9,31,0.00,CLR,,0.00,WeatherDisplay:10.37,2013-06-30 18:51:00,
2013-06-30 13:53:00,78.1,45.0,29.03,NNE,22,6.9,6.9,31,0.00,CLR,,0.00,WeatherDisplay:10.37,2013-06-30 18:53:00,
2013-06-30 13:55:00,77.4,44.4,29.03,North,0,6.9,6.9,31,0.00,CLR,,0.00,WeatherDisplay:10.37,2013-06-30 18:55:00,
2013-06-30 13:57:00,77.4,43.5,29.03,NNE,22,8.1,8.1,30,0.00,CLR,,0.00,WeatherDisplay:10.37,2013-06-30 18:57:00,
2013-06-30 13:58:00,77.4,44.4,29.03,ESE,112,5.8,5.8,31,0.00,CLR,,0.00,WeatherDisplay:10.37,2013-06-30 18:58:00,
2013-06-30 14:00:00,77.7,44.7,29.03,NNW,338,8.1,8.1,31,0.00,CLR,,0.00,WeatherDisplay:10.37,2013-06-30 19:00:00,
2013-06-30 14:01:00,77.7,44.7,29.03,NE,45,8.1,8.1,31,0.00,CLR,,0.00,WeatherDisplay:10.37,2013-06-30 19:01:00,
2013-06-30 14:03:00,77.9,44.8,29.03,North,0,5.8,5.8,31,0.00,CLR,,0.00,WeatherDisplay:10.37,2013-06-30 19:03:00,
2013-06-30 14:05:00,78.1,45.0,29.03,East,90,5.8,5.8,31,0.00,CLR,,0.00,WeatherDisplay:10.37,2013-06-30 19:05:00,
2013-06-30 14:06:00,78.3,45.1,29.03,ENE,68,6.9,6.9,31,0.00,CLR,,0.00,WeatherDisplay:10.37,2013-06-30 19:06:00,
2013-06-30 14:08:00,78.3,46.0,29.03,NNE,22,6.9,6.9,32,0.00,CLR,,0.00,WeatherDisplay:10.37,2013-06-30 19:08:00,
2013-06-30 14:11:00,77.9,44.8,29.03,NNW,338,8.1,8.1,31,0.00,CLR,,0.00,WeatherDisplay:10.37,2013-06-30 19:11:00,
2013-06-30 14:12:00,77.5,43.6,29.03,NNW,338,8.1,8.1,30,0.00,CLR,,0.00,WeatherDisplay:10.37,2013-06-30 19:12:00,
2013-06-30 14:13:00,77.9,44.8,29.03,West,270,3.5,3.5,31,0.00,CLR,,0.00,WeatherDisplay:10.37,2013-06-30 19:13:00,
2013-06-30 14:17:00,78.1,44.1,29.06,NW,315,12.7,12.7,30,0.00,CLR,,0.00,WeatherDisplay:10.37,2013-06-30 19:17:00,
2013-06-30 14:18:00,77.9,44.0,29.06,NE,45,5.9,5.9,30,0.00,CLR,,0.00,WeatherDisplay:10.37,2013-06-30 19:18:00,
2013-06-30 14:19:00,77.9,44.0,29.06,ENE,68,5.8,5.8,30,0.00,CLR,,0.00,WeatherDisplay:10.37,2013-06-30 19:19:00,
2013-06-30 14:20:00,77.7,43.8,29.06,NNE,22,4.9,4.9,30,0.00,CLR,,0.00,WeatherDisplay:10.37,2013-06-30 19:20:00,
2013-06-30 14:23:00,77.5,43.6,29.06,NNE,22,11.5,11.5,30,0.00,CLR,,0.00,WeatherDisplay:10.37,2013-06-30 19:23:00,
2013-06-30 14:24:00,77.5,43.6,29.06,ENE,68,5.8,5.8,30,0.00,CLR,,0.00,WeatherDisplay:10.37,2013-06-30 19:24:00,
2013-06-30 14:25:00,77.7,43.8,29.06,NNW,338,10.4,10.4,30,0.00,CLR,,0.00,WeatherDisplay:10.37,2013-06-30 19:25:00,
2013-06-30 14:28:00,77.4,44.4,29.06,ENE,68,9.8,9.8,31,0.00,CLR,,0.00,WeatherDisplay:10.37,2013-06-30 19:28:00,
2013-06-30 14:30:00,77.4,44.4,29.06,North,0,6.9,6.9,31,0.00,CLR,,0.00,WeatherDisplay:10.37,2013-06-30 19:30:00,
2013-06-30 14:31:00,77.4,44.4,29.03,NE,45,10.2,10.2,31,0.00,CLR,,0.00,WeatherDisplay:10.37,2013-06-30 19:31:00,
2013-06-30 14:32:00,77.4,44.4,29.03,NE,45,10.4,10.4,31,0.00,CLR,,0.00,WeatherDisplay:10.37,2013-06-30 19:32:00,
2013-06-30 14:35:00,76.8,43.9,29.03,North,0,8.1,8.1,31,0.00,CLR,,0.00,WeatherDisplay:10.37,2013-06-30 19:35:00,
2013-06-30 14:36:00,77.0,44.0,29.03,East,90,5.8,5.8,31,0.00,CLR,,0.00,WeatherDisplay:10.37,2013-06-30 19:36:00,
2013-06-30 14:37:00,77.0,43.2,29.03,ENE,68,8.1,8.1,30,0.00,CLR,,0.00,WeatherDisplay:10.37,2013-06-30 19:37:00,
2013-06-30 14:40:00,77.0,44.0,29.03,ENE,68,4.6,4.6,31,0.00,CLR,,0.00,WeatherDisplay:10.37,2013-06-30 19:40:00,
2013-06-30 14:41:00,77.0,44.0,29.03,NNW,338,5.8,5.8,31,0.00,CLR,,0.00,WeatherDisplay:10.37,2013-06-30 19:41:00,
2013-06-30 14:42:00,77.2,44.2,29.03,NNW,338,8.1,8.1,31,0.00,CLR,,0.00,WeatherDisplay:10.37,2013-06-30 19:42:00,
2013-06-30 14:43:00,77.4,44.4,29.03,NW,315,4.6,4.6,31,0.00,CLR,,0.00,WeatherDisplay:10.37,2013-06-30 19:43:00,
2013-06-30 14:45:00,77.4,44.4,29.03,WNW,292,5.8,5.8,31,0.00,CLR,,0.00,WeatherDisplay:10.37,2013-06-30 19:45:00,
2013-06-30 14:46:00,77.5,44.5,29.03,East,90,6.9,6.9,31,0.00,CLR,,0.00,WeatherDisplay:10.37,2013-06-30 19:46:00,
2013-06-30 14:48:00,77.4,44.4,29.03,North,0,9.2,9.2,31,0.00,CLR,,0.00,WeatherDisplay:10.37,2013-06-30 19:48:00,
2013-06-30 14:49:00,77.5,44.5,29.03,North,0,9.2,9.2,31,0.00,CLR,,0.00,WeatherDisplay:10.37,2013-06-30 19:49:00,
2013-06-30 14:51:00,77.5,44.5,29.03,NW,315,5.8,5.8,31,0.00,CLR,,0.00,WeatherDisplay:10.37,2013-06-30 19:51:00,
2013-06-30 14:52:00,77.5,44.5,29.03,North,0,8.1,8.1,31,0.00,CLR,,0.00,WeatherDisplay:10.37,2013-06-30 19:52:00,
2013-06-30 14:54:00,77.2,43.3,29.03,WNW,292,8.1,8.1,30,0.00,CLR,,0.00,WeatherDisplay:10.37,2013-06-30 19:54:00,
2013-06-30 14:56:00,77.7,42.9,29.03,ENE,68,8.1,8.1,29,0.00,CLR,,0.00,WeatherDisplay:10.37,2013-06-30 19:56:00,
2013-06-30 14:58:00,77.9,44.0,29.03,NNW,338,5.8,5.8,30,0.00,CLR,,0.00,WeatherDisplay:10.37,2013-06-30 19:58:00,
2013-06-30 14:59:00,78.4,45.3,29.03,North,0,8.5,8.5,31,0.00,CLR,,0.00,WeatherDisplay:10.37,2013-06-30 19:59:00,
2013-06-30 15:00:00,78.4,45.3,29.03,North,0,8.1,8.1,31,0.00,CLR,,0.00,WeatherDisplay:10.37,2013-06-30 20:00:00,
2013-06-30 15:01:00,78.4,45.3,29.03,NNW,338,5.8,5.8,31,0.00,CLR,,0.00,WeatherDisplay:10.37,2013-06-30 20:01:00,
2013-06-30 15:02:00,78.6,45.4,29.03,NNW,338,10.2,10.2,31,0.00,CLR,,0.00,WeatherDisplay:10.37,2013-06-30 20:02:00,
2013-06-30 15:04:00,78.6,44.6,29.03,North,0,10.5,10.5,30,0.00,CLR,,0.00,WeatherDisplay:10.37,2013-06-30 20:04:00,
2013-06-30 15:05:00,78.6,44.6,29.03,North,5,5.0,0.0,30,0.00,CLR,,0.00,WeatherDisplay:10.37,2013-06-30 20:05:00,
2013-06-30 15:08:00,78.6,44.6,29.03,North,0,8.5,8.5,30,0.00,CLR,,0.00,WeatherDisplay:10.37,2013-06-30 20:08:00,
2013-06-30 15:10:00,79.0,44.9,29.03,NE,45,5.8,5.8,30,0.00,CLR,,0.00,WeatherDisplay:10.37,2013-06-30 20:10:00,
2013-06-30 15:11:00,79.0,44.9,29.03,NE,45,5.8,5.8,30,0.00,CLR,,0.00,WeatherDisplay:10.37,2013-06-30 20:11:00,
2013-06-30 15:13:00,79.0,44.9,29.03,ENE,68,6.9,6.9,30,0.00,CLR,,0.00,WeatherDisplay:10.37,2013-06-30 20:13:00,
2013-06-30 15:15:00,78.8,44.7,29.03,North,0,4.6,4.6,30,0.00,CLR,,0.00,WeatherDisplay:10.37,2013-06-30 20:15:00,
2013-06-30 15:16:00,79.0,44.9,29.03,NNW,338,5.8,5.8,30,0.00,CLR,,0.00,WeatherDisplay:10.37,2013-06-30 20:16:00,
2013-06-30 15:18:00,79.0,45.8,29.03,NNW,338,10.0,10.0,31,0.00,CLR,,0.00,WeatherDisplay:10.37,2013-06-30 20:18:00,
2013-06-30 15:19:00,78.8,44.7,29.03,NNW,338,10.4,10.4,30,0.00,CLR,,0.00,WeatherDisplay:10.37,2013-06-30 20:19:00,
2013-06-30 15:22:00,78.6,45.4,29.03,NNW,338,7.4,7.4,31,0.00,CLR,,0.00,WeatherDisplay:10.37,2013-06-30 20:22:00,
2013-06-30 15:24:00,78.8,45.6,29.03,East,90,6.9,6.9,31,0.00,CLR,,0.00,WeatherDisplay:10.37,2013-06-30 20:24:00,
2013-06-30 15:25:00,78.8,45.6,29.03,ENE,68,6.9,6.9,31,0.00,CLR,,0.00,WeatherDisplay:10.37,2013-06-30 20:25:00,
2013-06-30 15:26:00,78.8,44.7,29.03,NNW,338,8.1,8.1,30,0.00,CLR,,0.00,WeatherDisplay:10.37,2013-06-30 20:26:00,
2013-06-30 15:30:00,78.6,45.4,29.03,NNE,18,2.0,0.0,31,0.00,CLR,,0.00,WeatherDisplay:10.37,2013-06-30 20:30:00,
2013-06-30 15:31:00,78.6,45.4,29.03,NNE,22,9.2,9.2,31,0.00,CLR,,0.00,WeatherDisplay:10.37,2013-06-30 20:31:00,
2013-06-30 15:32:00,78.4,45.3,29.03,NNW,338,5.8,5.8,31,0.00,CLR,,0.00,WeatherDisplay:10.37,2013-06-30 20:32:00,
2013-06-30 15:33:00,78.6,44.6,29.03,NNE,22,8.1,8.1,30,0.00,CLR,,0.00,WeatherDisplay:10.37,2013-06-30 20:33:00,
2013-06-30 15:36:00,79.0,43.1,29.03,NNE,22,7.4,7.4,28,0.00,CLR,,0.00,WeatherDisplay:10.37,2013-06-30 20:36:00,
2013-06-30 15:37:00,79.0,44.0,29.03,NNE,22,6.9,6.9,29,0.00,CLR,,0.00,WeatherDisplay:10.37,2013-06-30 20:37:00,
2013-06-30 15:38:00,79.0,43.1,29.03,NE,45,9.2,9.2,28,0.00,CLR,,0.00,WeatherDisplay:10.37,2013-06-30 20:38:00,
2013-06-30 15:39:00,79.2,45.0,29.03,North,0,12.7,12.7,30,0.00,CLR,,0.00,WeatherDisplay:10.37,2013-06-30 20:39:00,
2013-06-30 15:40:00,79.2,45.0,29.03,North,0,6.9,6.9,30,0.00,CLR,,0.00,WeatherDisplay:10.37,2013-06-30 20:40:00,
2013-06-30 15:44:00,79.9,44.8,29.03,East,90,11.2,11.2,29,0.00,CLR,,0.00,WeatherDisplay:10.37,2013-06-30 20:44:00,
2013-06-30 15:45:00,79.8,44.7,29.03,NNE,16,6.0,0.0,29,0.00,CLR,,0.00,WeatherDisplay:10.37,2013-06-30 20:45:00,
2013-06-30 15:49:00,79.9,45.7,29.03,NNE,22,10.4,10.4,30,0.00,CLR,,0.00,WeatherDisplay:10.37,2013-06-30 20:49:00,
2013-06-30 15:50:00,79.9,45.7,29.03,NNE,16,6.0,0.0,30,0.00,CLR,,0.00,WeatherDisplay:10.37,2013-06-30 20:50:00,
2013-06-30 15:52:00,80.2,46.0,29.03,NNW,338,10.4,10.4,30,0.00,CLR,,0.00,WeatherDisplay:10.37,2013-06-30 20:52:00,
2013-06-30 15:54:00,80.6,46.3,29.03,NNW,338,2.9,2.9,30,0.00,CLR,,0.00,WeatherDisplay:10.37,2013-06-30 20:54:00,
2013-06-30 15:55:00,80.6,45.4,29.03,North,2,2.0,0.0,29,0.00,CLR,,0.00,WeatherDisplay:10.37,2013-06-30 20:55:00,
2013-06-30 15:57:00,80.6,45.4,29.03,East,90,5.9,5.9,29,0.00,CLR,,0.00,WeatherDisplay:10.37,2013-06-30 20:57:00,
2013-06-30 15:59:00,80.4,46.1,29.03,North,0,6.2,6.2,30,0.00,CLR,,0.00,WeatherDisplay:10.37,2013-06-30 20:59:00,
2013-06-30 16:00:00,80.1,42.1,29.03,North,0,8.1,8.1,26,0.00,CLR,,0.00,WeatherDisplay:10.37,2013-06-30 21:00:00,
2013-06-30 16:02:00,79.9,42.9,29.03,NNE,22,9.2,9.2,27,0.00,CLR,,0.00,WeatherDisplay:10.37,2013-06-30 21:02:00,
2013-06-30 16:03:00,79.9,42.9,29.03,NNE,22,5.8,5.8,27,0.00,CLR,,0.00,WeatherDisplay:10.37,2013-06-30 21:03:00,
2013-06-30 16:05:00,79.7,43.7,29.03,NNW,338,8.1,8.1,28,0.00,CLR,,0.00,WeatherDisplay:10.37,2013-06-30 21:05:00,
2013-06-30 16:07:00,79.9,43.9,29.03,East,90,4.6,4.6,28,0.00,CLR,,0.00,WeatherDisplay:10.37,2013-06-30 21:07:00,
2013-06-30 16:08:00,80.1,45.8,29.03,NNW,338,4.6,4.6,30,0.00,CLR,,0.00,WeatherDisplay:10.37,2013-06-30 21:08:00,
2013-06-30 16:09:00,80.2,46.0,29.03,ENE,68,8.1,8.1,30,0.00,CLR,,0.00,WeatherDisplay:10.37,2013-06-30 21:09:00,
2013-06-30 16:11:00,80.1,45.8,29.03,East,90,7.1,7.1,30,0.00,CLR,,0.00,WeatherDisplay:10.37,2013-06-30 21:11:00,
2013-06-30 16:12:00,80.1,45.8,29.03,East,90,6.9,6.9,30,0.00,CLR,,0.00,WeatherDisplay:10.37,2013-06-30 21:12:00,
2013-06-30 16:15:00,80.1,44.9,29.03,NNE,13,6.0,0.0,29,0.00,CLR,,0.00,WeatherDisplay:10.37,2013-06-30 21:15:00,
2013-06-30 16:16:00,80.1,43.1,29.03,West,270,7.4,7.4,27,0.00,CLR,,0.00,WeatherDisplay:10.37,2013-06-30 21:16:00,
2013-06-30 16:17:00,80.1,45.8,29.03,ENE,68,10.9,10.9,30,0.00,CLR,,0.00,WeatherDisplay:10.37,2013-06-30 21:17:00,
2013-06-30 16:18:00,79.9,45.7,29.03,NNE,22,11.5,11.5,30,0.00,CLR,,0.00,WeatherDisplay:10.37,2013-06-30 21:18:00,
2013-06-30 16:22:00,79.5,42.6,29.03,NE,45,6.4,6.4,27,0.00,CLR,,0.00,WeatherDisplay:10.37,2013-06-30 21:22:00,
2013-06-30 16:23:00,79.5,43.5,29.03,NNE,22,6.9,6.9,28,0.00,CLR,,0.00,WeatherDisplay:10.37,2013-06-30 21:23:00,
2013-06-30 16:24:00,79.5,44.5,29.03,NW,315,3.5,3.5,29,0.00,CLR,,0.00,WeatherDisplay:10.37,2013-06-30 21:24:00,
2013-06-30 16:25:00,79.5,44.5,29.03,NNE,22,6.9,6.9,29,0.00,CLR,,0.00,WeatherDisplay:10.37,2013-06-30 21:25:00,
2013-06-30 16:28:00,79.3,45.2,29.03,NE,45,6.0,6.0,30,0.00,CLR,,0.00,WeatherDisplay:10.37,2013-06-30 21:28:00,
2013-06-30 16:29:00,79.2,44.2,29.03,NE,45,6.9,6.9,29,0.00,CLR,,0.00,WeatherDisplay:10.37,2013-06-30 21:29:00,
2013-06-30 16:30:00,79.2,44.2,29.03,NNW,338,5.8,5.8,29,0.00,CLR,,0.00,WeatherDisplay:10.37,2013-06-30 21:30:00,
2013-06-30 16:31:00,78.8,42.0,29.03,NE,45,7.4,7.4,27,0.00,CLR,,0.00,WeatherDisplay:10.37,2013-06-30 21:31:00,
2013-06-30 16:34:00,78.8,42.9,29.03,North,0,6.2,6.7,28,0.00,CLR,,0.00,WeatherDisplay:10.37,2013-06-30 21:34:00,
2013-06-30 16:35:00,78.6,41.8,29.03,NE,45,6.4,6.4,27,0.00,CLR,,0.00,WeatherDisplay:10.37,2013-06-30 21:35:00,
2013-06-30 16:37:00,78.6,42.8,29.03,ENE,68,6.9,6.9,28,0.00,CLR,,0.00,WeatherDisplay:10.37,2013-06-30 21:37:00,
2013-06-30 16:38:00,78.6,42.8,29.03,NNE,22,10.4,10.4,28,0.00,CLR,,0.00,WeatherDisplay:10.37,2013-06-30 21:38:00,
2013-06-30 16:40:00,78.6,43.7,29.03,NNE,15,6.0,0.0,29,0.00,CLR,,0.00,WeatherDisplay:10.37,2013-06-30 21:40:00,
2013-06-30 16:42:00,78.8,43.8,29.03,NNE,22,15.0,15.0,29,0.00,CLR,,0.00,WeatherDisplay:10.37,2013-06-30 21:42:00,
2013-06-30 16:43:00,79.0,44.0,29.03,SW,225,6.9,6.9,29,0.00,CLR,,0.00,WeatherDisplay:10.37,2013-06-30 21:43:00,
2013-06-30 16:45:00,78.6,43.7,29.03,NNE,22,10.4,10.4,29,0.00,CLR,,0.00,WeatherDisplay:10.37,2013-06-30 21:45:00,
2013-06-30 16:47:00,78.6,42.8,29.03,North,0,4.6,4.6,28,0.00,CLR,,0.00,WeatherDisplay:10.37,2013-06-30 21:47:00,
2013-06-30 16:48:00,78.6,41.8,29.03,ENE,68,5.8,5.8,27,0.00,CLR,,0.00,WeatherDisplay:10.37,2013-06-30 21:48:00,
2013-06-30 16:50:00,78.6,41.8,29.03,NNE,13,6.0,0.0,27,0.00,CLR,,0.00,WeatherDisplay:10.37,2013-06-30 21:50:00,
2013-06-30 16:52:00,79.2,45.0,29.03,North,0,5.8,5.8,30,0.00,CLR,,0.00,WeatherDisplay:10.37,2013-06-30 21:52:00,
2013-06-30 16:53:00,79.2,45.0,29.03,NNE,22,7.4,7.4,30,0.00,CLR,,0.00,WeatherDisplay:10.37,2013-06-30 21:53:00,
2013-06-30 16:54:00,79.0,44.9,29.03,NNE,22,10.4,10.4,30,0.00,CLR,,0.00,WeatherDisplay:10.37,2013-06-30 21:54:00,
2013-06-30 16:55:00,79.1,45.0,29.03,North,359,7.0,0.0,30,0.00,CLR,,0.00,WeatherDisplay:10.37,2013-06-30 21:55:00,
2013-06-30 16:58:00,79.2,45.0,29.03,NNW,338,5.8,5.8,30,0.00,CLR,,0.00,WeatherDisplay:10.37,2013-06-30 21:58:00,
2013-06-30 16:59:00,79.0,42.1,29.03,ENE,68,6.9,6.9,27,0.00,CLR,,0.00,WeatherDisplay:10.37,2013-06-30 21:59:00,
2013-06-30 17:00:00,79.0,43.1,29.03,North,0,5.8,5.8,28,0.00,CLR,,0.00,WeatherDisplay:10.37,2013-06-30 22:00:00,
2013-06-30 17:02:00,78.6,41.8,29.03,NE,45,8.1,8.1,27,0.00,CLR,,0.00,WeatherDisplay:10.37,2013-06-30 22:02:00,
2013-06-30 17:05:00,78.8,42.9,29.03,NNW,338,8.7,8.7,28,0.00,CLR,,0.00,WeatherDisplay:10.37,2013-06-30 22:05:00,
2013-06-30 17:06:00,78.6,41.8,29.03,North,0,9.2,9.2,27,0.00,CLR,,0.00,WeatherDisplay:10.37,2013-06-30 22:06:00,
2013-06-30 17:07:00,78.6,41.8,29.03,NNW,338,5.8,5.8,27,0.00,CLR,,0.00,WeatherDisplay:10.37,2013-06-30 22:07:00,
2013-06-30 17:08:00,78.8,44.7,29.03,NNE,22,5.8,5.8,30,0.00,CLR,,0.00,WeatherDisplay:10.37,2013-06-30 22:08:00,
2013-06-30 17:10:00,78.8,42.0,29.03,NNE,22,12.7,12.7,27,0.00,CLR,,0.00,WeatherDisplay:10.37,2013-06-30 22:10:00,
2013-06-30 17:12:00,79.0,41.2,29.03,ENE,68,7.8,7.8,26,0.00,CLR,,0.00,WeatherDisplay:10.37,2013-06-30 22:12:00,
2013-06-30 17:13:00,78.8,41.0,29.03,NE,45,10.4,10.4,26,0.00,CLR,,0.00,WeatherDisplay:10.37,2013-06-30 22:13:00,
2013-06-30 17:17:00,78.6,41.8,29.03,NNE,22,10.4,10.4,27,0.00,CLR,,0.00,WeatherDisplay:10.37,2013-06-30 22:17:00,
2013-06-30 17:18:00,78.8,42.0,29.03,NNW,338,5.8,5.8,27,0.00,CLR,,0.00,WeatherDisplay:10.37,2013-06-30 22:18:00,
2013-06-30 17:19:00,78.6,39.8,29.03,North,0,9.2,9.2,25,0.00,CLR,,0.00,WeatherDisplay:10.37,2013-06-30 22:19:00,
2013-06-30 17:23:00,78.4,40.7,29.03,WNW,292,8.1,8.1,26,0.00,CLR,,0.00,WeatherDisplay:10.37,2013-06-30 22:23:00,
2013-06-30 17:24:00,78.4,42.6,29.03,ENE,68,9.8,9.8,28,0.00,CLR,,0.00,WeatherDisplay:10.37,2013-06-30 22:24:00,
2013-06-30 17:28:00,78.3,40.5,29.03,NW,315,10.4,10.4,26,0.00,CLR,,0.00,WeatherDisplay:10.37,2013-06-30 22:28:00,
2013-06-30 17:29:00,78.1,40.4,29.03,North,0,8.1,8.1,26,0.00,CLR,,0.00,WeatherDisplay:10.37,2013-06-30 22:29:00,
2013-06-30 17:31:00,78.3,41.5,29.03,NNW,338,8.1,8.1,27,0.00,CLR,,0.00,WeatherDisplay:10.37,2013-06-30 22:31:00,
2013-06-30 17:32:00,78.3,41.5,29.03,NNW,338,7.1,7.1,27,0.00,CLR,,0.00,WeatherDisplay:10.37,2013-06-30 22:32:00,
2013-06-30 17:34:00,78.1,41.4,29.03,NW,315,11.4,11.4,27,0.00,CLR,,0.00,WeatherDisplay:10.37,2013-06-30 22:34:00,
2013-06-30 17:35:00,78.1,42.3,29.03,NNW,338,11.5,11.5,28,0.00,CLR,,0.00,WeatherDisplay:10.37,2013-06-30 22:35:00,
2013-06-30 17:36:00,78.1,41.4,29.03,ENE,68,8.1,8.1,27,0.00,CLR,,0.00,WeatherDisplay:10.37,2013-06-30 22:36:00,
2013-06-30 17:38:00,78.3,43.4,29.03,East,90,8.1,8.1,29,0.00,CLR,,0.00,WeatherDisplay:10.37,2013-06-30 22:38:00,
2013-06-30 17:40:00,78.2,42.4,29.03,NNE,15,5.0,0.0,28,0.00,CLR,,0.00,WeatherDisplay:10.37,2013-06-30 22:40:00,
2013-06-30 17:41:00,78.1,40.4,29.03,WNW,292,11.5,11.5,26,0.00,CLR,,0.00,WeatherDisplay:10.37,2013-06-30 22:41:00,
2013-06-30 17:43:00,78.3,41.5,29.03,NNE,22,8.1,8.1,27,0.00,CLR,,0.00,WeatherDisplay:10.37,2013-06-30 22:43:00,
2013-06-30 17:44:00,78.4,42.6,29.03,NNW,338,8.1,8.1,28,0.00,CLR,,0.00,WeatherDisplay:10.37,2013-06-30 22:44:00,
2013-06-30 17:45:00,78.3,43.4,29.03,NNE,16,5.0,0.0,29,0.00,CLR,,0.00,WeatherDisplay:10.37,2013-06-30 22:45:00,
2013-06-30 17:47:00,78.4,43.5,29.06,NNW,338,6.9,6.9,29,0.00,CLR,,0.00,WeatherDisplay:10.37,2013-06-30 22:47:00,
2013-06-30 17:50:00,78.4,43.5,29.06,ENE,68,5.8,5.8,29,0.00,CLR,,0.00,WeatherDisplay:10.37,2013-06-30 22:50:00,
2013-06-30 17:51:00,78.4,43.5,29.06,North,0,10.0,10.0,29,0.00,CLR,,0.00,WeatherDisplay:10.37,2013-06-30 22:51:00,
2013-06-30 17:53:00,78.3,42.5,29.06,NNE,22,5.8,5.9,28,0.00,CLR,,0.00,WeatherDisplay:10.37,2013-06-30 22:53:00,
2013-06-30 17:54:00,78.4,43.5,29.06,ENE,68,6.9,6.9,29,0.00,CLR,,0.00,WeatherDisplay:10.37,2013-06-30 22:54:00,
2013-06-30 17:55:00,78.3,42.5,29.06,NNE,24,5.0,0.0,28,0.00,CLR,,0.00,WeatherDisplay:10.37,2013-06-30 22:55:00,
2013-06-30 17:56:00,78.4,45.3,29.06,NNW,338,8.1,8.1,31,0.00,CLR,,0.00,WeatherDisplay:10.37,2013-06-30 22:56:00,
2013-06-30 18:00:00,78.3,43.4,29.06,NE,34,6.0,0.0,29,0.00,CLR,,0.00,WeatherDisplay:10.37,2013-06-30 23:00:00,
2013-06-30 18:01:00,78.3,42.5,29.03,ENE,68,5.8,5.8,28,0.00,CLR,,0.00,WeatherDisplay:10.37,2013-06-30 23:01:00,
2013-06-30 18:04:00,78.3,41.5,29.03,North,0,8.1,8.1,27,0.00,CLR,,0.00,WeatherDisplay:10.37,2013-06-30 23:04:00,
2013-06-30 18:05:00,78.3,41.5,29.03,NE,45,8.1,8.1,27,0.00,CLR,,0.00,WeatherDisplay:10.37,2013-06-30 23:05:00,
2013-06-30 18:06:00,78.4,43.5,29.03,NW,315,3.5,3.5,29,0.00,CLR,,0.00,WeatherDisplay:10.37,2013-06-30 23:06:00,
2013-06-30 18:07:00,78.3,43.4,29.03,NNE,22,6.7,6.7,29,0.00,CLR,,0.00,WeatherDisplay:10.37,2013-06-30 23:07:00,
2013-06-30 18:09:00,78.1,42.3,29.03,NNW,338,10.4,10.4,28,0.00,CLR,,0.00,WeatherDisplay:10.37,2013-06-30 23:09:00,
2013-06-30 18:11:00,78.4,44.4,29.03,East,90,4.9,6.0,30,0.00,CLR,,0.00,WeatherDisplay:10.37,2013-06-30 23:11:00,
2013-06-30 18:12:00,78.4,42.6,29.03,ENE,68,9.2,9.2,28,0.00,CLR,,0.00,WeatherDisplay:10.37,2013-06-30 23:12:00,
2013-06-30 18:13:00,78.4,42.6,29.03,NNE,22,10.4,10.4,28,0.00,CLR,,0.00,WeatherDisplay:10.37,2013-06-30 23:13:00,
2013-06-30 18:14:00,78.4,42.6,29.03,NE,45,7.1,7.1,28,0.00,CLR,,0.00,WeatherDisplay:10.37,2013-06-30 23:14:00,
2013-06-30 18:17:00,78.3,40.5,29.06,North,0,9.2,9.2,26,0.00,CLR,,0.00,WeatherDisplay:10.37,2013-06-30 23:17:00,
2013-06-30 18:18:00,78.4,41.7,29.06,NNE,22,9.2,9.2,27,0.00,CLR,,0.00,WeatherDisplay:10.37,2013-06-30 23:18:00,
2013-06-30 18:19:00,78.3,40.5,29.06,NNW,338,9.8,9.8,26,0.00,CLR,,0.00,WeatherDisplay:10.37,2013-06-30 23:19:00,
2013-06-30 18:20:00,78.3,40.6,29.06,NNE,24,6.0,0.0,26,0.00,CLR,,0.00,WeatherDisplay:10.37,2013-06-30 23:20:00,
2013-06-30 18:23:00,78.1,40.4,29.06,ENE,68,5.8,5.8,26,0.00,CLR,,0.00,WeatherDisplay:10.37,2013-06-30 23:23:00,
2013-06-30 18:24:00,78.1,40.4,29.06,East,90,4.6,4.6,26,0.00,CLR,,0.00,WeatherDisplay:10.37,2013-06-30 23:24:00,
2013-06-30 18:25:00,78.1,41.4,29.06,North,0,4.6,4.6,27,0.00,CLR,,0.00,WeatherDisplay:10.37,2013-06-30 23:25:00,
2013-06-30 18:29:00,78.1,42.3,29.06,ENE,68,3.5,3.5,28,0.00,CLR,,0.00,WeatherDisplay:10.37,2013-06-30 23:29:00,
2013-06-30 18:30:00,78.1,42.3,29.06,NE,40,2.0,0.0,28,0.00,CLR,,0.00,WeatherDisplay:10.37,2013-06-30 23:30:00,
2013-06-30 18:31:00,77.9,42.2,29.06,NE,45,8.1,8.1,28,0.00,CLR,,0.00,WeatherDisplay:10.37,2013-06-30 23:31:00,
2013-06-30 18:34:00,77.9,42.2,29.06,NE,45,9.2,9.2,28,0.00,CLR,,0.00,WeatherDisplay:10.37,2013-06-30 23:34:00,
2013-06-30 18:35:00,77.9,42.2,29.06,North,0,9.2,9.2,28,0.00,CLR,,0.00,WeatherDisplay:10.37,2013-06-30 23:35:00,
2013-06-30 18:36:00,78.1,42.3,29.06,NE,45,4.9,4.9,28,0.00,CLR,,0.00,WeatherDisplay:10.37,2013-06-30 23:36:00,
2013-06-30 18:37:00,78.1,41.4,29.06,NNW,338,5.8,5.8,27,0.00,CLR,,0.00,WeatherDisplay:10.37,2013-06-30 23:37:00,
2013-06-30 18:38:00,78.1,41.4,29.06,ENE,68,6.0,6.0,27,0.00,CLR,,0.00,WeatherDisplay:10.37,2013-06-30 23:38:00,
2013-06-30 18:40:00,78.1,41.4,29.06,NNE,29,5.0,0.0,27,0.00,CLR,,0.00,WeatherDisplay:10.37,2013-06-30 23:40:00,
2013-06-30 18:42:00,78.3,42.5,29.06,NNW,338,7.6,7.6,28,0.00,CLR,,0.00,WeatherDisplay:10.37,2013-06-30 23:42:00,
2013-06-30 18:45:00,78.3,42.5,29.06,East,90,8.1,8.1,28,0.00,CLR,,0.00,WeatherDisplay:10.37,2013-06-30 23:45:00,
2013-06-30 18:46:00,78.3,42.5,29.06,ENE,68,8.5,8.5,28,0.00,CLR,,0.00,WeatherDisplay:10.37,2013-06-30 23:46:00,
2013-06-30 18:47:00,78.1,42.3,29.06,ENE,68,8.1,8.1,28,0.00,CLR,,0.00,WeatherDisplay:10.37,2013-06-30 23:47:00,
2013-06-30 18:48:00,78.1,42.3,29.06,ENE,68,8.1,8.1,28,0.00,CLR,,0.00,WeatherDisplay:10.37,2013-06-30 23:48:00,
2013-06-30 18:50:00,78.1,42.3,29.06,North,0,8.1,8.1,28,0.00,CLR,,0.00,WeatherDisplay:10.37,2013-06-30 23:50:00,
2013-06-30 18:53:00,78.1,43.2,29.06,East,90,6.4,6.4,29,0.00,CLR,,0.00,WeatherDisplay:10.37,2013-06-30 23:53:00,
2013-06-30 18:54:00,77.9,43.1,29.06,NNE,22,6.9,6.9,29,0.00,CLR,,0.00,WeatherDisplay:10.37,2013-06-30 23:54:00,
2013-06-30 18:55:00,77.9,43.1,29.06,NE,45,6.9,6.9,29,0.00,CLR,,0.00,WeatherDisplay:10.37,2013-06-30 23:55:00,
2013-06-30 18:56:00,77.9,44.0,29.06,ENE,68,5.9,5.9,30,0.00,CLR,,0.00,WeatherDisplay:10.37,2013-06-30 23:56:00,
2013-06-30 18:57:00,77.9,43.1,29.06,WNW,292,9.2,9.2,29,0.00,CLR,,0.00,WeatherDisplay:10.37,2013-06-30 23:57:00,
2013-06-30 19:00:00,77.9,42.2,29.06,ENE,68,8.1,8.1,28,0.00,CLR,,0.00,WeatherDisplay:10.37,2013-07-01 00:00:00,
2013-06-30 19:01:00,77.9,43.1,29.03,NNE,22,11.5,11.5,29,0.00,CLR,,0.00,WeatherDisplay:10.37,2013-07-01 00:01:00,
2013-06-30 19:03:00,77.9,43.1,29.03,NNE,22,5.8,5.8,29,0.00,CLR,,0.00,WeatherDisplay:10.37,2013-07-01 00:03:00,
2013-06-30 19:05:00,77.8,43.8,29.03,NE,35,3.0,0.0,30,0.00,CLR,,0.00,WeatherDisplay:10.37,2013-07-01 00:05:00,
2013-06-30 19:07:00,77.7,43.8,29.03,NW,315,3.5,3.8,30,0.00,CLR,,0.00,WeatherDisplay:10.37,2013-07-01 00:07:00,
2013-06-30 19:09:00,77.7,43.8,29.03,NE,45,3.1,3.1,30,0.00,CLR,,0.00,WeatherDisplay:10.37,2013-07-01 00:09:00,
2013-06-30 19:10:00,77.6,43.7,29.03,NE,38,2.0,0.0,30,0.00,CLR,,0.00,WeatherDisplay:10.37,2013-07-01 00:10:00,
2013-06-30 19:11:00,77.5,43.6,29.03,ENE,68,5.8,5.8,30,0.00,CLR,,0.00,WeatherDisplay:10.37,2013-07-01 00:11:00,
2013-06-30 19:14:00,77.5,43.6,29.03,North,0,4.6,4.6,30,0.00,CLR,,0.00,WeatherDisplay:10.37,2013-07-01 00:14:00,
2013-06-30 19:15:00,77.4,43.5,29.03,NNW,338,3.5,3.5,30,0.00,CLR,,0.00,WeatherDisplay:10.37,2013-07-01 00:15:00,
2013-06-30 19:16:00,77.4,43.5,29.06,North,0,3.1,3.1,30,0.00,CLR,,0.00,WeatherDisplay:10.37,2013-07-01 00:16:00,
2013-06-30 19:18:00,77.2,43.3,29.06,North,0,3.5,3.5,30,0.00,CLR,,0.00,WeatherDisplay:10.37,2013-07-01 00:18:00,
2013-06-30 19:19:00,77.2,43.3,29.06,North,0,3.5,3.5,30,0.00,CLR,,0.00,WeatherDisplay:10.37,2013-07-01 00:19:00,
2013-06-30 19:20:00,77.2,43.3,29.06,NNE,22,4.7,4.7,30,0.00,CLR,,0.00,WeatherDisplay:10.37,2013-07-01 00:20:00,
2013-06-30 19:23:00,77.0,40.4,29.06,NNE,22,8.1,8.1,27,0.00,CLR,,0.00,WeatherDisplay:10.37,2013-07-01 00:23:00,
2013-06-30 19:24:00,76.8,41.2,29.06,ENE,68,6.9,6.9,28,0.00,CLR,,0.00,WeatherDisplay:10.37,2013-07-01 00:24:00,
2013-06-30 19:25:00,76.8,41.2,29.06,NNE,22,6.9,6.9,28,0.00,CLR,,0.00,WeatherDisplay:10.37,2013-07-01 00:25:00,
2013-06-30 19:27:00,76.6,41.1,29.06,ENE,68,4.6,4.6,28,0.00,CLR,,0.00,WeatherDisplay:10.37,2013-07-01 00:27:00,
2013-06-30 19:29:00,76.6,41.1,29.06,NW,315,5.8,5.8,28,0.00,CLR,,0.00,WeatherDisplay:10.37,2013-07-01 00:29:00,
2013-06-30 19:32:00,76.6,41.1,29.09,ENE,68,8.1,8.1,28,0.00,CLR,,0.00,WeatherDisplay:10.37,2013-07-01 00:32:00,
2013-06-30 19:33:00,76.6,41.1,29.09,North,0,6.0,6.0,28,0.00,CLR,,0.00,WeatherDisplay:10.37,2013-07-01 00:33:00,
2013-06-30 19:34:00,76.6,41.1,29.09,NNE,22,5.8,5.8,28,0.00,CLR,,0.00,WeatherDisplay:10.37,2013-07-01 00:34:00,
2013-06-30 19:35:00,76.6,41.1,29.09,NNE,26,3.0,0.0,28,0.00,CLR,,0.00,WeatherDisplay:10.37,2013-07-01 00:35:00,
2013-06-30 19:36:00,76.5,41.8,29.09,North,0,4.6,4.6,29,0.00,CLR,,0.00,WeatherDisplay:10.37,2013-07-01 00:36:00,
2013-06-30 19:38:00,76.5,41.8,29.09,NNE,22,4.6,4.6,29,0.00,CLR,,0.00,WeatherDisplay:10.37,2013-07-01 00:38:00,
2013-06-30 19:39:00,76.5,41.8,29.09,NNW,338,4.6,4.6,29,0.00,CLR,,0.00,WeatherDisplay:10.37,2013-07-01 00:39:00,
2013-06-30 19:41:00,76.3,42.6,29.09,NE,45,4.6,4.6,30,0.00,CLR,,0.00,WeatherDisplay:10.37,2013-07-01 00:41:00,
2013-06-30 19:42:00,76.1,42.4,29.09,NNE,22,2.4,2.4,30,0.00,CLR,,0.00,WeatherDisplay:10.37,2013-07-01 00:42:00,
2013-06-30 19:44:00,76.1,42.4,29.09,NNE,22,6.9,6.9,30,0.00,CLR,,0.00,WeatherDisplay:10.37,2013-07-01 00:44:00,
2013-06-30 19:47:00,75.7,42.1,29.06,ENE,68,5.4,5.4,30,0.00,CLR,,0.00,WeatherDisplay:10.37,2013-07-01 00:47:00,
2013-06-30 19:48:00,75.6,42.8,29.06,NNE,22,5.8,5.8,31,0.00,CLR,,0.00,WeatherDisplay:10.37,2013-07-01 00:48:00,
2013-06-30 19:49:00,75.6,42.8,29.06,NNE,22,4.6,4.6,31,0.00,CLR,,0.00,WeatherDisplay:10.37,2013-07-01 00:49:00,
2013-06-30 19:50:00,75.6,42.8,29.06,ENE,68,4.6,4.6,31,0.00,CLR,,0.00,WeatherDisplay:10.37,2013-07-01 00:50:00,
2013-06-30 19:51:00,75.4,42.6,29.06,NNE,22,4.6,4.6,31,0.00,CLR,,0.00,WeatherDisplay:10.37,2013-07-01 00:51:00,
2013-06-30 19:54:00,75.2,42.5,29.06,NE,45,9.2,9.2,31,0.00,CLR,,0.00,WeatherDisplay:10.37,2013-07-01 00:54:00,
2013-06-30 19:55:00,75.2,42.5,29.06,NE,45,9.2,9.2,31,0.00,CLR,,0.00,WeatherDisplay:10.37,2013-07-01 00:55:00,
2013-06-30 19:58:00,74.8,42.2,29.06,NNE,22,2.3,2.3,31,0.00,CLR,,0.00,WeatherDisplay:10.37,2013-07-01 00:58:00,
2013-06-30 19:59:00,74.8,43.0,29.06,NW,315,2.6,2.6,32,0.00,CLR,,0.00,WeatherDisplay:10.37,2013-07-01 00:59:00,
2013-06-30 20:00:00,74.7,42.0,29.06,NE,45,3.5,3.5,31,0.00,CLR,,0.00,WeatherDisplay:10.37,2013-07-01 01:00:00,
2013-06-30 20:02:00,74.5,41.9,29.06,NNE,22,3.8,3.8,31,0.00,CLR,,0.00,WeatherDisplay:10.37,2013-07-01 01:02:00,
2013-06-30 20:04:00,74.3,41.7,29.06,North,0,5.8,5.8,31,0.00,CLR,,0.00,WeatherDisplay:10.37,2013-07-01 01:04:00,
2013-06-30 20:05:00,74.3,41.7,29.06,North,0,2.3,2.3,31,0.00,CLR,,0.00,WeatherDisplay:10.37,2013-07-01 01:05:00,
2013-06-30 20:08:00,73.9,42.2,29.06,North,0,3.5,3.5,32,0.00,CLR,,0.00,WeatherDisplay:10.37,2013-07-01 01:08:00,
2013-06-30 20:11:00,73.8,42.0,29.06,NNE,22,3.5,3.5,32,0.00,CLR,,0.00,WeatherDisplay:10.37,2013-07-01 01:11:00,
2013-06-30 20:12:00,73.6,41.9,29.06,NE,45,4.6,4.6,32,0.00,CLR,,0.00,WeatherDisplay:10.37,2013-07-01 01:12:00,
2013-06-30 20:15:00,73.4,41.7,29.06,NNE,22,2.3,2.3,32,0.00,CLR,,0.00,WeatherDisplay:10.37,2013-07-01 01:15:00,
2013-06-30 20:16:00,73.4,41.7,29.09,NNE,22,3.5,3.5,32,0.00,CLR,,0.00,WeatherDisplay:10.37,2013-07-01 01:16:00,
2013-06-30 20:17:00,73.2,42.4,29.09,NNE,22,3.3,3.3,33,0.00,CLR,,0.00,WeatherDisplay:10.37,2013-07-01 01:17:00,
2013-06-30 20:19:00,73.0,42.2,29.09,NNE,22,2.3,2.3,33,0.00,CLR,,0.00,WeatherDisplay:10.37,2013-07-01 01:19:00,
2013-06-30 20:20:00,73.1,42.3,29.09,NNE,15,1.0,0.0,33,0.00,CLR,,0.00,WeatherDisplay:10.37,2013-07-01 01:20:00,
2013-06-30 20:21:00,73.0,42.2,29.09,NNW,338,1.1,0.0,33,0.00,CLR,,0.00,WeatherDisplay:10.37,2013-07-01 01:21:00,
2013-06-30 20:24:00,72.7,42.7,29.09,NNW,338,2.4,0.0,34,0.00,CLR,,0.00,WeatherDisplay:10.37,2013-07-01 01:24:00,
2013-06-30 20:25:00,72.7,41.9,29.09,North,4,0.0,0.0,33,0.00,CLR,,0.00,WeatherDisplay:10.37,2013-07-01 01:25:00,
2013-06-30 20:27:00,72.3,42.4,29.09,North,0,2.3,0.0,34,0.00,CLR,,0.00,WeatherDisplay:10.37,2013-07-01 01:27:00,
2013-06-30 20:28:00,72.3,42.4,29.09,NNW,338,0.0,0.0,34,0.00,CLR,,0.00,WeatherDisplay:10.37,2013-07-01 01:28:00,
2013-06-30 20:30:00,72.2,43.0,29.09,NNW,346,1.0,0.0,35,0.00,CLR,,0.00,WeatherDisplay:10.37,2013-07-01 01:30:00,
2013-06-30 20:33:00,72.0,42.0,29.09,NNW,338,3.5,3.5,34,0.00,CLR,,0.00,WeatherDisplay:10.37,2013-07-01 01:33:00,
2013-06-30 20:34:00,71.8,42.6,29.09,North,0,3.1,0.0,35,0.00,CLR,,0.00,WeatherDisplay:10.37,2013-07-01 01:34:00,
2013-06-30 20:35:00,71.8,41.9,29.09,NNE,22,3.5,3.5,34,0.00,CLR,,0.00,WeatherDisplay:10.37,2013-07-01 01:35:00,
2013-06-30 20:37:00,71.6,42.5,29.09,WNW,292,3.5,3.5,35,0.00,CLR,,0.00,WeatherDisplay:10.37,2013-07-01 01:37:00,
2013-06-30 20:38:00,71.4,42.3,29.09,ENE,68,3.5,3.5,35,0.00,CLR,,0.00,WeatherDisplay:10.37,2013-07-01 01:38:00,
2013-06-30 20:40:00,71.2,42.9,29.09,North,0,4.6,4.6,36,0.00,CLR,,0.00,WeatherDisplay:10.37,2013-07-01 01:40:00,
2013-06-30 20:41:00,71.2,42.2,29.09,NNW,338,2.3,2.3,35,0.00,CLR,,0.00,WeatherDisplay:10.37,2013-07-01 01:41:00,
2013-06-30 20:42:00,71.2,42.2,29.09,NW,315,2.3,2.3,35,0.00,CLR,,0.00,WeatherDisplay:10.37,2013-07-01 01:42:00,
2013-06-30 20:45:00,71.1,42.0,29.09,North,1,2.0,0.0,35,0.00,CLR,,0.00,WeatherDisplay:10.37,2013-07-01 01:45:00,
2013-06-30 20:46:00,71.1,42.0,29.09,NNE,22,2.3,2.3,35,0.00,CLR,,0.00,WeatherDisplay:10.37,2013-07-01 01:46:00,
2013-06-30 20:47:00,70.9,41.9,29.09,North,0,2.3,2.3,35,0.00,CLR,,0.00,WeatherDisplay:10.37,2013-07-01 01:47:00,
2013-06-30 20:48:00,70.9,41.9,29.09,NNE,22,2.6,2.6,35,0.00,CLR,,0.00,WeatherDisplay:10.37,2013-07-01 01:48:00,
2013-06-30 20:50:00,70.7,41.7,29.09,NNE,22,1.1,0.0,35,0.00,CLR,,0.00,WeatherDisplay:10.37,2013-07-01 01:50:00,
2013-06-30 20:51:00,70.5,41.5,29.09,NNW,338,0.0,0.0,35,0.00,CLR,,0.00,WeatherDisplay:10.37,2013-07-01 01:51:00,
2013-06-30 20:52:00,70.5,41.5,29.09,NNE,22,1.4,0.0,35,0.00,CLR,,0.00,WeatherDisplay:10.37,2013-07-01 01:52:00,
2013-06-30 20:55:00,70.5,41.5,29.09,NNE,22,2.3,2.3,35,0.00,CLR,,0.00,WeatherDisplay:10.37,2013-07-01 01:55:00,
2013-06-30 20:56:00,70.5,41.5,29.09,NNE,22,2.3,2.3,35,0.00,CLR,,0.00,WeatherDisplay:10.37,2013-07-01 01:56:00,
2013-06-30 20:58:00,70.2,41.2,29.09,NNW,338,2.4,2.4,35,0.00,CLR,,0.00,WeatherDisplay:10.37,2013-07-01 01:58:00,
2013-06-30 20:59:00,70.2,41.2,29.09,NNW,338,2.3,0.0,35,0.00,CLR,,0.00,WeatherDisplay:10.37,2013-07-01 01:59:00,
2013-06-30 21:01:00,70.0,41.1,29.09,NW,315,2.3,2.3,35,0.00,CLR,,0.00,WeatherDisplay:10.37,2013-07-01 02:01:00,
2013-06-30 21:02:00,70.0,41.1,29.09,NNE,22,2.3,2.3,35,0.00,CLR,,0.00,WeatherDisplay:10.37,2013-07-01 02:02:00,
2013-06-30 21:04:00,69.8,41.6,29.09,NNE,22,2.3,0.0,36,0.00,CLR,,0.00,WeatherDisplay:10.37,2013-07-01 02:04:00,
2013-06-30 21:05:00,69.8,41.6,29.09,North,352,1.0,0.0,36,0.00,CLR,,0.00,WeatherDisplay:10.37,2013-07-01 02:05:00,
2013-06-30 21:07:00,69.6,41.5,29.09,NNW,338,2.3,2.3,36,0.00,CLR,,0.00,WeatherDisplay:10.37,2013-07-01 02:07:00,
2013-06-30 21:08:00,69.4,41.3,29.09,North,0,3.5,3.5,36,0.00,CLR,,0.00,WeatherDisplay:10.37,2013-07-01 02:08:00,
2013-06-30 21:09:00,69.4,42.0,29.09,NNE,22,2.3,2.3,37,0.00,CLR,,0.00,WeatherDisplay:10.37,2013-07-01 02:09:00,
2013-06-30 21:12:00,69.3,41.9,29.09,NNE,22,3.5,3.5,37,0.00,CLR,,0.00,WeatherDisplay:10.37,2013-07-01 02:12:00,
2013-06-30 21:13:00,69.3,41.9,29.09,NNW,338,2.3,2.3,37,0.00,CLR,,0.00,WeatherDisplay:10.37,2013-07-01 02:13:00,
2013-06-30 21:16:00,69.1,41.7,29.09,North,0,2.6,2.6,37,0.00,CLR,,0.00,WeatherDisplay:10.37,2013-07-01 02:16:00,
2013-06-30 21:18:00,69.1,41.7,29.09,North,0,2.3,2.3,37,0.00,CLR,,0.00,WeatherDisplay:10.37,2013-07-01 02:18:00,
2013-06-30 21:19:00,69.1,41.7,29.09,North,0,2.3,2.3,37,0.00,CLR,,0.00,WeatherDisplay:10.37,2013-07-01 02:19:00,
2013-06-30 21:21:00,69.1,42.4,29.09,North,0,2.3,2.3,38,0.00,CLR,,0.00,WeatherDisplay:10.37,2013-07-01 02:21:00,
2013-06-30 21:23:00,68.9,42.2,29.09,North,0,2.3,2.3,38,0.00,CLR,,0.00,WeatherDisplay:10.37,2013-07-01 02:23:00,
2013-06-30 21:27:00,68.7,42.8,29.09,NNE,22,3.5,3.5,39,0.00,CLR,,0.00,WeatherDisplay:10.37,2013-07-01 02:27:00,
2013-06-30 21:28:00,68.7,42.8,29.09,North,0,3.5,3.5,39,0.00,CLR,,0.00,WeatherDisplay:10.37,2013-07-01 02:28:00,
2013-06-30 21:29:00,68.7,42.8,29.09,North,0,2.3,2.3,39,0.00,CLR,,0.00,WeatherDisplay:10.37,2013-07-01 02:29:00,
2013-06-30 21:30:00,68.7,42.8,29.09,NNE,22,2.3,2.3,39,0.00,CLR,,0.00,WeatherDisplay:10.37,2013-07-01 02:30:00,
2013-06-30 21:32:00,68.5,43.2,29.09,NNE,22,2.3,2.3,40,0.00,CLR,,0.00,WeatherDisplay:10.37,2013-07-01 02:32:00,
2013-06-30 21:33:00,68.5,43.2,29.09,ENE,68,2.9,2.9,40,0.00,CLR,,0.00,WeatherDisplay:10.37,2013-07-01 02:33:00,
2013-06-30 21:35:00,68.5,43.9,29.09,NNE,22,3.5,3.5,41,0.00,CLR,,0.00,WeatherDisplay:10.37,2013-07-01 02:35:00,
2013-06-30 21:38:00,68.5,44.5,29.09,NNE,22,2.9,2.9,42,0.00,CLR,,0.00,WeatherDisplay:10.37,2013-07-01 02:38:00,
2013-06-30 21:39:00,68.5,44.5,29.09,North,0,3.6,3.6,42,0.00,CLR,,0.00,WeatherDisplay:10.37,2013-07-01 02:39:00,
2013-06-30 21:40:00,68.5,44.5,29.09,NNE,21,2.0,0.0,42,0.00,CLR,,0.00,WeatherDisplay:10.37,2013-07-01 02:40:00,
2013-06-30 21:41:00,68.5,44.5,29.09,NE,45,3.5,3.5,42,0.00,CLR,,0.00,WeatherDisplay:10.37,2013-07-01 02:41:00,
2013-06-30 21:45:00,68.4,45.0,29.09,NNE,22,2.0,0.0,43,0.00,CLR,,0.00,WeatherDisplay:10.37,2013-07-01 02:45:00,
2013-06-30 21:46:00,68.4,45.0,29.09,NE,45,5.4,5.4,43,0.00,CLR,,0.00,WeatherDisplay:10.37,2013-07-01 02:46:00,
2013-06-30 21:47:00,68.4,45.0,29.09,NNE,22,5.8,5.8,43,0.00,CLR,,0.00,WeatherDisplay:10.37,2013-07-01 02:47:00,
2013-06-30 21:50:00,68.2,44.8,29.09,NNW,338,5.8,5.8,43,0.00,CLR,,0.00,WeatherDisplay:10.37,2013-07-01 02:50:00,
2013-06-30 21:51:00,68.2,44.8,29.09,NNE,22,5.8,5.8,43,0.00,CLR,,0.00,WeatherDisplay:10.37,2013-07-01 02:51:00,
2013-06-30 21:52:00,68.2,44.8,29.09,NNW,338,3.5,3.5,43,0.00,CLR,,0.00,WeatherDisplay:10.37,2013-07-01 02:52:00,
2013-06-30 21:53:00,68.2,45.4,29.09,North,0,8.1,8.1,44,0.00,CLR,,0.00,WeatherDisplay:10.37,2013-07-01 02:53:00,
2013-06-30 21:56:00,68.2,45.4,29.09,NNE,22,5.8,5.8,44,0.00,CLR,,0.00,WeatherDisplay:10.37,2013-07-01 02:56:00,
2013-06-30 21:57:00,68.2,45.4,29.09,NNW,338,5.8,5.8,44,0.00,CLR,,0.00,WeatherDisplay:10.37,2013-07-01 02:57:00,
2013-06-30 21:58:00,68.0,45.3,29.09,ENE,68,2.3,2.3,44,0.00,CLR,,0.00,WeatherDisplay:10.37,2013-07-01 02:58:00,
2013-06-30 21:59:00,68.0,45.3,29.09,NW,315,3.5,3.5,44,0.00,CLR,,0.00,WeatherDisplay:10.37,2013-07-01 02:59:00,
2013-06-30 22:03:00,68.0,45.3,29.12,ENE,68,2.3,2.3,44,0.00,CLR,,0.00,WeatherDisplay:10.37,2013-07-01 03:03:00,
2013-06-30 22:04:00,68.0,45.3,29.12,NNE,22,2.4,2.4,44,0.00,CLR,,0.00,WeatherDisplay:10.37,2013-07-01 03:04:00,
2013-06-30 22:05:00,67.8,45.1,29.12,NNE,22,2.3,2.3,44,0.00,CLR,,0.00,WeatherDisplay:10.37,2013-07-01 03:05:00,
2013-06-30 22:06:00,67.8,45.7,29.12,NNE,22,2.3,2.3,45,0.00,CLR,,0.00,WeatherDisplay:10.37,2013-07-01 03:06:00,
2013-06-30 22:08:00,67.8,45.1,29.12,NNW,338,3.1,3.1,44,0.00,CLR,,0.00,WeatherDisplay:10.37,2013-07-01 03:08:00,
2013-06-30 22:09:00,67.8,45.1,29.12,ENE,68,3.5,3.5,44,0.00,CLR,,0.00,WeatherDisplay:10.37,2013-07-01 03:09:00,
2013-06-30 22:10:00,67.8,45.1,29.12,NNE,21,2.0,0.0,44,0.00,CLR,,0.00,WeatherDisplay:10.37,2013-07-01 03:10:00,
2013-06-30 22:12:00,67.8,45.7,29.12,NNE,22,3.5,3.5,45,0.00,CLR,,0.00,WeatherDisplay:10.37,2013-07-01 03:12:00,
2013-06-30 22:13:00,67.8,45.7,29.12,NNE,22,3.5,3.5,45,0.00,CLR,,0.00,WeatherDisplay:10.37,2013-07-01 03:13:00,
2013-06-30 22:14:00,67.8,45.7,29.12,NNE,22,5.8,5.8,45,0.00,CLR,,0.00,WeatherDisplay:10.37,2013-07-01 03:14:00,
2013-06-30 22:15:00,67.8,45.7,29.12,NNW,338,5.8,5.8,45,0.00,CLR,,0.00,WeatherDisplay:10.37,2013-07-01 03:15:00,
2013-06-30 22:18:00,67.8,45.7,29.12,North,0,3.3,3.3,45,0.00,CLR,,0.00,WeatherDisplay:10.37,2013-07-01 03:18:00,
2013-06-30 22:19:00,67.8,45.7,29.12,ENE,68,5.8,5.8,45,0.00,CLR,,0.00,WeatherDisplay:10.37,2013-07-01 03:19:00,
2013-06-30 22:20:00,67.8,45.7,29.12,NNW,338,4.6,4.6,45,0.00,CLR,,0.00,WeatherDisplay:10.37,2013-07-01 03:20:00,
2013-06-30 22:21:00,67.8,45.7,29.12,North,0,2.3,2.3,45,0.00,CLR,,0.00,WeatherDisplay:10.37,2013-07-01 03:21:00,
2013-06-30 22:24:00,67.6,45.5,29.12,NNE,22,3.5,3.5,45,0.00,CLR,,0.00,WeatherDisplay:10.37,2013-07-01 03:24:00,
2013-06-30 22:26:00,67.6,45.5,29.12,North,0,4.6,4.6,45,0.00,CLR,,0.00,WeatherDisplay:10.37,2013-07-01 03:26:00,
2013-06-30 22:30:00,67.6,44.9,29.12,NNE,22,2.3,2.3,44,0.00,CLR,,0.00,WeatherDisplay:10.37,2013-07-01 03:30:00,
2013-06-30 22:31:00,67.6,45.5,29.12,NNE,22,2.3,2.3,45,0.00,CLR,,0.00,WeatherDisplay:10.37,2013-07-01 03:31:00,
2013-06-30 22:33:00,67.6,45.5,29.12,ENE,68,5.8,5.8,45,0.00,CLR,,0.00,WeatherDisplay:10.37,2013-07-01 03:33:00,
2013-06-30 22:36:00,67.5,45.4,29.12,NNE,22,3.5,3.5,45,0.00,CLR,,0.00,WeatherDisplay:10.37,2013-07-01 03:36:00,
2013-06-30 22:38:00,67.5,45.4,29.12,NNE,22,5.9,5.9,45,0.00,CLR,,0.00,WeatherDisplay:10.37,2013-07-01 03:38:00,
2013-06-30 22:39:00,67.5,45.4,29.12,NNE,22,5.8,5.8,45,0.00,CLR,,0.00,WeatherDisplay:10.37,2013-07-01 03:39:00,
2013-06-30 22:41:00,67.5,45.4,29.12,NNE,22,4.6,4.6,45,0.00,CLR,,0.00,WeatherDisplay:10.37,2013-07-01 03:41:00,
2013-06-30 22:43:00,67.3,45.2,29.12,NNE,22,9.2,9.2,45,0.00,CLR,,0.00,WeatherDisplay:10.37,2013-07-01 03:43:00,
2013-06-30 22:45:00,67.3,45.2,29.12,ENE,68,4.9,4.9,45,0.00,CLR,,0.00,WeatherDisplay:10.37,2013-07-01 03:45:00,
2013-06-30 22:46:00,67.3,44.6,29.12,NE,45,5.4,5.4,44,0.00,CLR,,0.00,WeatherDisplay:10.37,2013-07-01 03:46:00,
2013-06-30 22:49:00,67.3,44.6,29.12,NNE,22,4.3,4.3,44,0.00,CLR,,0.00,WeatherDisplay:10.37,2013-07-01 03:49:00,
2013-06-30 22:50:00,67.3,44.6,29.12,NNE,31,3.0,0.0,44,0.00,CLR,,0.00,WeatherDisplay:10.37,2013-07-01 03:50:00,
2013-06-30 22:51:00,67.3,45.2,29.12,NE,45,4.6,4.6,45,0.00,CLR,,0.00,WeatherDisplay:10.37,2013-07-01 03:51:00,
2013-06-30 22:54:00,67.1,44.4,29.12,NNE,22,3.5,3.5,44,0.00,CLR,,0.00,WeatherDisplay:10.37,2013-07-01 03:54:00,
2013-06-30 22:55:00,67.1,44.4,29.12,NE,38,2.0,0.0,44,0.00,CLR,,0.00,WeatherDisplay:10.37,2013-07-01 03:55:00,
2013-06-30 22:56:00,67.1,44.4,29.12,NNE,22,2.4,2.4,44,0.00,CLR,,0.00,WeatherDisplay:10.37,2013-07-01 03:56:00,
2013-06-30 22:58:00,67.1,44.4,29.12,North,0,3.6,3.6,44,0.00,CLR,,0.00,WeatherDisplay:10.37,2013-07-01 03:58:00,
2013-06-30 23:00:00,67.1,44.4,29.12,NE,35,2.0,0.0,44,0.00,CLR,,0.00,WeatherDisplay:10.37,2013-07-01 04:00:00,
2013-06-30 23:01:00,67.1,44.4,29.12,NE,45,5.8,5.8,44,0.00,CLR,,0.00,WeatherDisplay:10.37,2013-07-01 04:01:00,
2013-06-30 23:02:00,66.9,44.3,29.12,ESE,112,5.8,5.8,44,0.00,CLR,,0.00,WeatherDisplay:10.37,2013-07-01 04:02:00,
2013-06-30 23:04:00,66.9,44.3,29.12,NNE,22,4.6,4.6,44,0.00,CLR,,0.00,WeatherDisplay:10.37,2013-07-01 04:04:00,
2013-06-30 23:05:00,66.9,44.3,29.12,NE,45,3.5,3.5,44,0.00,CLR,,0.00,WeatherDisplay:10.37,2013-07-01 04:05:00,
2013-06-30 23:07:00,66.7,44.1,29.12,NE,45,3.5,3.5,44,0.00,CLR,,0.00,WeatherDisplay:10.37,2013-07-01 04:07:00,
2013-06-30 23:09:00,66.7,44.1,29.12,NE,45,8.1,8.1,44,0.00,CLR,,0.00,WeatherDisplay:10.37,2013-07-01 04:09:00,
2013-06-30 23:10:00,66.7,44.1,29.12,NE,40,3.0,0.0,44,0.00,CLR,,0.00,WeatherDisplay:10.37,2013-07-01 04:10:00,
2013-06-30 23:13:00,66.7,43.5,29.12,ENE,68,3.5,3.5,43,0.00,CLR,,0.00,WeatherDisplay:10.37,2013-07-01 04:13:00,
2013-06-30 23:14:00,66.6,43.4,29.12,NNE,22,3.5,3.5,43,0.00,CLR,,0.00,WeatherDisplay:10.37,2013-07-01 04:14:00,
2013-06-30 23:16:00,66.6,43.4,29.12,ENE,68,2.4,2.4,43,0.00,CLR,,0.00,WeatherDisplay:10.37,2013-07-01 04:16:00,
2013-06-30 23:20:00,66.6,43.4,29.12,NE,39,2.0,0.0,43,0.00,CLR,,0.00,WeatherDisplay:10.37,2013-07-01 04:20:00,
2013-06-30 23:21:00,66.4,43.2,29.12,NE,45,3.5,3.5,43,0.00,CLR,,0.00,WeatherDisplay:10.37,2013-07-01 04:21:00,
2013-06-30 23:24:00,66.4,42.6,29.12,NNE,22,4.6,4.6,42,0.00,CLR,,0.00,WeatherDisplay:10.37,2013-07-01 04:24:00,
2013-06-30 23:25:00,66.4,42.6,29.12,NE,35,2.0,0.0,42,0.00,CLR,,0.00,WeatherDisplay:10.37,2013-07-01 04:25:00,
2013-06-30 23:26:00,66.4,42.6,29.12,NNE,22,5.8,5.8,42,0.00,CLR,,0.00,WeatherDisplay:10.37,2013-07-01 04:26:00,
2013-06-30 23:27:00,66.4,42.0,29.12,NE,45,5.6,5.6,41,0.00,CLR,,0.00,WeatherDisplay:10.37,2013-07-01 04:27:00,
2013-06-30 23:29:00,66.4,42.0,29.12,NNE,22,3.5,3.5,41,0.00,CLR,,0.00,WeatherDisplay:10.37,2013-07-01 04:29:00,
2013-06-30 23:30:00,66.2,41.8,29.12,NNE,28,2.0,0.0,41,0.00,CLR,,0.00,WeatherDisplay:10.37,2013-07-01 04:30:00,
2013-06-30 23:31:00,66.2,41.2,29.12,NE,45,9.2,9.2,40,0.00,CLR,,0.00,WeatherDisplay:10.37,2013-07-01 04:31:00,
2013-06-30 23:32:00,66.2,41.2,29.12,ENE,68,3.5,3.5,40,0.00,CLR,,0.00,WeatherDisplay:10.37,2013-07-01 04:32:00,
2013-06-30 23:35:00,66.2,41.2,29.12,NNE,27,2.0,0.0,40,0.00,CLR,,0.00,WeatherDisplay:10.37,2013-07-01 04:35:00,
2013-06-30 23:36:00,66.2,41.2,29.12,NNW,338,6.9,6.9,40,0.00,CLR,,0.00,WeatherDisplay:10.37,2013-07-01 04:36:00,
2013-06-30 23:37:00,66.2,41.2,29.12,NNE,22,3.5,3.5,40,0.00,CLR,,0.00,WeatherDisplay:10.37,2013-07-01 04:37:00,
2013-06-30 23:38:00,66.0,41.0,29.12,NNE,22,2.3,2.3,40,0.00,CLR,,0.00,WeatherDisplay:10.37,2013-07-01 04:38:00,
2013-06-30 23:40:00,66.0,41.0,29.12,NNE,18,2.0,0.0,40,0.00,CLR,,0.00,WeatherDisplay:10.37,2013-07-01 04:40:00,
2013-06-30 23:42:00,65.8,40.8,29.12,NE,45,2.9,2.9,40,0.00,CLR,,0.00,WeatherDisplay:10.37,2013-07-01 04:42:00,
2013-06-30 23:43:00,65.8,40.8,29.12,NNE,22,2.3,2.3,40,0.00,CLR,,0.00,WeatherDisplay:10.37,2013-07-01 04:43:00,
2013-06-30 23:45:00,65.7,40.0,29.12,NE,45,4.6,4.6,39,0.00,CLR,,0.00,WeatherDisplay:10.37,2013-07-01 04:45:00,
2013-06-30 23:46:00,65.7,40.0,29.12,NNE,22,4.6,4.6,39,0.00,CLR,,0.00,WeatherDisplay:10.37,2013-07-01 04:46:00,
2013-06-30 23:50:00,65.7,39.3,29.12,ENE,68,3.5,3.5,38,0.00,CLR,,0.00,WeatherDisplay:10.37,2013-07-01 04:50:00,
2013-06-30 23:52:00,65.7,39.3,29.12,NNW,338,5.8,5.8,38,0.00,CLR,,0.00,WeatherDisplay:10.37,2013-07-01 04:52:00,
2013-06-30 23:53:00,65.7,39.3,29.12,NNE,22,2.3,2.3,38,0.00,CLR,,0.00,WeatherDisplay:10.37,2013-07-01 04:53:00,
2013-06-30 23:55:00,65.5,39.2,29.12,NNE,22,1.1,0.0,38,0.00,CLR,,0.00,WeatherDisplay:10.37,2013-07-01 04:55:00,
2013-06-30 23:57:00,65.5,39.2,29.12,NW,315,3.5,3.5,38,0.00,CLR,,0.00,WeatherDisplay:10.37,2013-07-01 04:57:00,
2013-06-30 23:58:00,65.3,39.0,29.12,ENE,68,1.1,0.0,38,0.00,CLR,,0.00,WeatherDisplay:10.37,2013-07-01 04:58:00,
2013-06-30 23:59:00,65.3,39.0,29.12,NNW,338,2.3,2.3,38,0.00,CLR,,0.00,WeatherDisplay:10.37,2013-07-01 04:59:00,